FW1385 Weather Reports


Display with metric or nautical units.
time (UTC)temp
F
wind
direction
speed
MPH
gust
MPH
rain 1hr
in
rain 24hr
in
rain mn
in
humidity
%
barometer
mb
20260904164004 98 25 2.0 3.0 0.00 0.00 0.00 53 1014.9
20260904163903 98 28 2.0 3.0 0.00 0.00 0.00 52 1014.9
20260904163804 98 15 2.0 4.0 0.00 0.00 0.00 53 1014.9
20260904163704 98 354 2.0 4.0 0.00 0.00 0.00 53 1014.8
20260904163603 98 336 2.0 4.0 0.00 0.00 0.00 55 1014.8
20260904163504 98 325 2.0 4.0 0.00 0.00 0.00 56 1014.8
20260904163403 98 328 2.0 4.0 0.00 0.00 0.00 53 1014.9
20260904163303 98 336 2.0 4.0 0.00 0.00 0.00 53 1014.9
20260904163203 98 350 2.0 4.0 0.00 0.00 0.00 54 1014.9
20260904163117 98 355 2.0 4.0 0.00 0.00 0.00 54 1014.9
20260904163103 98 355 2.0 4.0 0.00 0.00 0.00 55 1014.9
20260904163004 98 357 2.0 4.0 0.00 0.00 0.00 54 1014.9
20260904162918 98 357 2.0 4.0 0.00 0.00 0.00 54 1014.9
20260904162804 98 8 1.0 4.0 0.00 0.00 0.00 53 1014.8
20260904162603 98 32 1.0 4.0 0.00 0.00 0.00 55 1014.9
20260904162504 98 50 1.0 4.0 0.00 0.00 0.00 54 1014.9
20260904162404 98 60 1.0 4.0 0.00 0.00 0.00 53 1014.9
20260904162306 98 101 1.0 4.0 0.00 0.00 0.00 55 1014.9
20260904162203 98 150 1.0 3.0 0.00 0.00 0.00 55 1014.9
20260904162104 98 170 1.0 2.0 0.00 0.00 0.00 56 1014.9
20260904162003 98 182 1.0 2.0 0.00 0.00 0.00 58 1014.9
20260904161903 98 182 1.0 2.0 0.00 0.00 0.00 57 1015.0
20260904161803 98 177 1.0 3.0 0.00 0.00 0.00 57 1015.0
20260904161705 97 181 1.0 3.0 0.00 0.00 0.00 57 1015.0
20260904161603 97 200 1.0 3.0 0.00 0.00 0.00 56 1015.0
20260904161504 97 208 1.0 3.0 0.00 0.00 0.00 56 1015.0
20260904161403 97 214 1.0 3.0 0.00 0.00 0.00 56 1015.1
20260904161304 97 222 1.0 3.0 0.00 0.00 0.00 56 1015.1
20260904161203 97 242 1.0 3.0 0.00 0.00 0.00 55 1015.0
20260904161109 97 270 1.0 3.0 0.00 0.00 0.00 55 1015.1
20260904161004 97 277 1.0 3.0 0.00 0.00 0.00 55 1015.1
20260904160903 97 287 1.0 3.0 0.00 0.00 0.00 55 1015.2
20260904160804 97 302 1.0 4.0 0.00 0.00 0.00 56 1015.2
20260904160704 97 311 1.0 4.0 0.00 0.00 0.00 56 1015.2
20260904160603 97 320 1.0 4.0 0.00 0.00 0.00 57 1015.2
20260904160503 96 323 1.0 4.0 0.00 0.00 0.00 58 1015.2
20260904160403 96 336 1.0 4.0 0.00 0.00 0.00 58 1015.1
20260904160303 96 340 2.0 4.0 0.00 0.00 0.00 56 1015.1
20260904160204 96 343 2.0 4.0 0.00 0.00 0.00 56 1015.2
20260904160103 96 354 1.0 4.0 0.00 0.00 0.00 57 1015.1
20260904160003 96 1 1.0 4.0 0.00 0.00 0.00 57 1015.1
20260904155903 96 9 1.0 4.0 0.00 0.00 0.00 57 1015.1
20260904155704 96 18 1.0 4.0 0.00 0.00 0.00 57 1015.1
20260904155604 96 18 1.0 4.0 0.00 0.00 0.00 57 1015.1
20260904155504 96 19 1.0 4.0 0.00 0.00 0.00 57 1015.1
20260904155306 96 20 1.0 3.0 0.00 0.00 0.00 58 1015.2
20260904155204 96 19 1.0 3.0 0.00 0.00 0.00 57 1015.2
20260904155103 96 20 1.0 3.0 0.00 0.00 0.00 59 1015.2
20260904155004 96 21 1.0 2.0 0.00 0.00 0.00 59 1015.2
20260904154904 95 21 1.0 2.0 0.00 0.00 0.00 59 1015.2
20260904154804 96 22 1.0 4.0 0.00 0.00 0.00 59 1015.2
20260904154704 95 22 1.0 4.0 0.00 0.00 0.00 58 1015.2
20260904154603 95 23 1.0 4.0 0.00 0.00 0.00 58 1015.2
20260904154503 95 24 1.0 4.0 0.00 0.00 0.00 58 1015.2
20260904154419 95 26 2.0 4.0 0.00 0.00 0.00 58 1015.2
20260904154318 95 30 2.0 4.0 0.00 0.00 0.00 58 1015.2
20260904154304 95 31 2.0 4.0 0.00 0.00 0.00 58 1015.2
20260904154003 95 37 1.0 4.0 0.00 0.00 0.00 58 1015.3
20260904153904 95 44 1.0 4.0 0.00 0.00 0.00 58 1015.3
20260904153803 95 53 1.0 4.0 0.00 0.00 0.00 59 1015.3
20260904153703 95 67 1.0 4.0 0.00 0.00 0.00 59 1015.3
20260904153604 95 84 1.0 4.0 0.00 0.00 0.00 57 1015.3
20260904153503 95 104 1.0 4.0 0.00 0.00 0.00 58 1015.2
20260904153403 95 113 1.0 3.0 0.00 0.00 0.00 58 1015.2
20260904153304 95 113 1.0 3.0 0.00 0.00 0.00 61 1015.2
20260904153203 95 113 1.0 3.0 0.00 0.00 0.00 61 1015.2
20260904153104 94 113 1.0 3.0 0.00 0.00 0.00 59 1015.2
20260904153003 94 110 1.0 3.0 0.00 0.00 0.00 59 1015.2
20260904152904 94 105 1.0 3.0 0.00 0.00 0.00 60 1015.2
20260904152803 94 99 1.0 3.0 0.00 0.00 0.00 61 1015.2
20260904152704 94 88 1.0 3.0 0.00 0.00 0.00 61 1015.2
20260904152604 94 71 1.0 3.0 0.00 0.00 0.00 62 1015.1
20260904152503 94 64 1.0 3.0 0.00 0.00 0.00 60 1015.2
20260904152403 94 55 1.0 3.0 0.00 0.00 0.00 59 1015.2
20260904152317 94 49 1.0 3.0 0.00 0.00 0.00 59 1015.1
20260904152306 94 47 1.0 3.0 0.00 0.00 0.00 59 1015.1
20260904152203 94 34 1.0 3.0 0.00 0.00 0.00 61 1015.2
20260904152003 94 11 1.0 3.0 0.00 0.00 0.00 60 1015.2
20260904151903 94 5 0.0 2.0 0.00 0.00 0.00 59 1015.2
20260904151803 94 360 0.0 2.0 0.00 0.00 0.00 60 1015.1
20260904151703 94 355 0.0 2.0 0.00 0.00 0.00 60 1015.2
20260904151603 94 355 0.0 2.0 0.00 0.00 0.00 61 1015.2
20260904151518 94 355 0.0 2.0 0.00 0.00 0.00 61 1015.2
20260904151504 94 355 0.0 2.0 0.00 0.00 0.00 62 1015.2
20260904151403 94 355 0.0 3.0 0.00 0.00 0.00 62 1015.2
20260904151203 93 355 1.0 3.0 0.00 0.00 0.00 61 1015.1
20260904151103 93 355 1.0 3.0 0.00 0.00 0.00 61 1015.1
20260904151004 93 354 1.0 3.0 0.00 0.00 0.00 63 1015.1
20260904150903 93 354 1.0 3.0 0.00 0.00 0.00 63 1015.1
20260904150803 93 354 1.0 3.0 0.00 0.00 0.00 62 1015.1
20260904150704 93 354 1.0 3.0 0.00 0.00 0.00 61 1015.1
20260904150604 92 354 1.0 3.0 0.00 0.00 0.00 61 1015.1
20260904150518 92 354 1.0 3.0 0.00 0.00 0.00 61 1015.1
20260904150419 92 354 1.0 3.0 0.00 0.00 0.00 62 1015.1
20260904150403 92 354 1.0 2.0 0.00 0.00 0.00 64 1015.1
20260904150004 92 354 1.0 2.0 0.00 0.00 0.00 65 1015.1
20260904145903 92 354 0.0 2.0 0.00 0.00 0.00 65 1015.1
20260904145703 92 354 1.0 2.0 0.00 0.00 0.00 64 1015.1
20260904145603 92 354 1.0 2.0 0.00 0.00 0.00 65 1015.1
20260904145503 92 354 0.0 2.0 0.00 0.00 0.00 65 1015.1
20260904145404 91 354 0.0 2.0 0.00 0.00 0.00 64 1015.1
20260904145305 91 354 0.0 2.0 0.00 0.00 0.00 64 1015.1
20260904145203 91 354 0.0 2.0 0.00 0.00 0.00 65 1015.2
20260904145103 91 354 0.0 2.0 0.00 0.00 0.00 67 1015.1
20260904145004 91 354 0.0 2.0 0.00 0.00 0.00 66 1015.1
20260904144903 91 354 0.0 2.0 0.00 0.00 0.00 67 1015.1
20260904144803 91 354 0.0 1.0 0.00 0.00 0.00 68 1015.1
20260904144703 91 354 0.0 1.0 0.00 0.00 0.00 70 1015.1
20260904144603 91 354 0.0 2.0 0.00 0.00 0.00 70 1015.0
20260904144503 90 354 0.0 2.0 0.00 0.00 0.00 70 1015.0
20260904144403 90 354 0.0 2.0 0.00 0.00 0.00 70 1015.0
20260904144303 90 354 0.0 2.0 0.00 0.00 0.00 69 1015.0
20260904144204 90 354 0.0 2.0 0.00 0.00 0.00 69 1015.0
20260904144103 90 354 1.0 3.0 0.00 0.00 0.00 71 1015.1
20260904144003 90 354 1.0 3.0 0.00 0.00 0.00 70 1015.1
20260904143903 90 354 1.0 3.0 0.00 0.00 0.00 70 1015.0
20260904143803 90 354 1.0 3.0 0.00 0.00 0.00 70 1015.0
20260904143703 90 354 1.0 3.0 0.00 0.00 0.00 70 1015.1
20260904143503 90 354 1.0 3.0 0.00 0.00 0.00 73 1015.1
20260904143404 90 354 1.0 3.0 0.00 0.00 0.00 72 1015.1
20260904143304 89 354 1.0 3.0 0.00 0.00 0.00 73 1015.1
20260904143204 89 354 1.0 3.0 0.00 0.00 0.00 72 1015.1
20260904143104 89 355 1.0 3.0 0.00 0.00 0.00 72 1015.1
20260904143003 89 355 0.0 3.0 0.00 0.00 0.00 73 1015.1
20260904142903 89 355 0.0 3.0 0.00 0.00 0.00 74 1015.1
20260904142803 89 355 0.0 3.0 0.00 0.00 0.00 74 1015.0
20260904142704 88 355 0.0 3.0 0.00 0.00 0.00 73 1015.0
20260904142603 88 355 0.0 3.0 0.00 0.00 0.00 74 1015.1
20260904142503 88 355 0.0 3.0 0.00 0.00 0.00 73 1015.1
20260904142403 88 355 0.0 3.0 0.00 0.00 0.00 74 1015.0
20260904142306 88 355 0.0 2.0 0.00 0.00 0.00 74 1015.0
20260904142203 88 355 0.0 2.0 0.00 0.00 0.00 75 1015.0
20260904142103 88 355 1.0 3.0 0.00 0.00 0.00 76 1015.0
20260904142004 88 355 1.0 3.0 0.00 0.00 0.00 75 1015.0
20260904141904 88 355 1.0 3.0 0.00 0.00 0.00 75 1015.0
20260904141818 88 355 1.0 3.0 0.00 0.00 0.00 75 1015.0
20260904141704 87 355 1.0 3.0 0.00 0.00 0.00 76 1015.0
20260904141503 87 355 1.0 3.0 0.00 0.00 0.00 73 1015.0
20260904141403 87 355 1.0 3.0 0.00 0.00 0.00 73 1015.0
20260904141303 87 355 1.0 3.0 0.00 0.00 0.00 73 1015.1
20260904141203 87 355 1.0 3.0 0.00 0.00 0.00 74 1015.1
20260904141118 87 355 1.0 3.0 0.00 0.00 0.00 74 1015.0
20260904141004 87 355 1.0 3.0 0.00 0.00 0.00 74 1015.0
20260904140917 87 355 1.0 3.0 0.00 0.00 0.00 75 1015.0
20260904140804 87 355 1.0 3.0 0.00 0.00 0.00 74 1014.9
20260904140604 86 355 1.0 3.0 0.00 0.00 0.00 75 1015.0
20260904140503 86 355 1.0 3.0 0.00 0.00 0.00 76 1014.9
20260904140404 86 355 1.0 3.0 0.00 0.00 0.00 77 1014.9
20260904140303 86 355 1.0 3.0 0.00 0.00 0.00 77 1014.9
20260904140203 86 355 0.0 3.0 0.00 0.00 0.00 78 1014.9
20260904135903 85 355 0.0 2.0 0.00 0.00 0.00 80 1014.9
20260904135803 85 355 0.0 2.0 0.00 0.00 0.00 80 1014.8
20260904135704 85 355 0.0 2.0 0.00 0.00 0.00 80 1014.9
20260904135617 85 355 0.0 2.0 0.00 0.00 0.00 80 1014.9
20260904135604 84 355 0.0 2.0 0.00 0.00 0.00 80 1014.9
20260904135503 84 355 0.0 2.0 0.00 0.00 0.00 80 1014.9
20260904135306 84 0 0.0 0.0 0.00 0.00 0.00 80 1014.8
20260904135203 84 0 0.0 0.0 0.00 0.00 0.00 81 1014.8
20260904135104 84 0 0.0 0.0 0.00 0.00 0.00 81 1014.8
20260904134903 84 0 0.0 0.0 0.00 0.00 0.00 82 1014.9
20260904134803 84 355 0.0 1.0 0.00 0.00 0.00 82 1014.9
20260904134703 83 355 0.0 1.0 0.00 0.00 0.00 82 1014.9
20260904134603 83 355 0.0 1.0 0.00 0.00 0.00 82 1014.9
20260904134503 83 355 0.0 1.0 0.00 0.00 0.00 82 1014.9
20260904134403 83 355 0.0 1.0 0.00 0.00 0.00 82 1015.0
20260904134304 83 355 0.0 1.0 0.00 0.00 0.00 82 1015.0
20260904134204 83 355 0.0 1.0 0.00 0.00 0.00 82 1014.9
20260904134103 83 355 0.0 1.0 0.00 0.00 0.00 82 1014.9
20260904133904 82 355 0.0 1.0 0.00 0.00 0.00 82 1014.9
20260904133804 82 355 0.0 1.0 0.00 0.00 0.00 83 1014.9
20260904133704 82 355 0.0 1.0 0.00 0.00 0.00 83 1014.9
20260904133603 82 355 0.0 1.0 0.00 0.00 0.00 83 1014.9
20260904133504 82 355 0.0 1.0 0.00 0.00 0.00 83 1015.0
20260904133319 82 355 0.0 1.0 0.00 0.00 0.00 83 1014.9
20260904133303 82 355 0.0 2.0 0.00 0.00 0.00 83 1014.9
20260904133204 82 355 0.0 2.0 0.00 0.00 0.00 83 1015.0
20260904133004 82 355 0.0 2.0 0.00 0.00 0.00 83 1014.9
20260904132903 82 355 1.0 2.0 0.00 0.00 0.00 84 1015.0
20260904132804 82 355 1.0 2.0 0.00 0.00 0.00 83 1015.0
20260904132718 81 355 1.0 2.0 0.00 0.00 0.00 83 1015.0
20260904132603 81 355 1.0 2.0 0.00 0.00 0.00 84 1014.9
20260904132404 81 355 1.0 2.0 0.00 0.00 0.00 84 1015.0
20260904132306 81 355 1.0 2.0 0.00 0.00 0.00 84 1015.0
20260904132203 81 355 1.0 2.0 0.00 0.00 0.00 85 1015.0
20260904132103 81 355 1.0 2.0 0.00 0.00 0.00 85 1015.0
20260904132004 80 355 1.0 2.0 0.00 0.00 0.00 85 1015.0
20260904131904 80 355 1.0 2.0 0.00 0.00 0.00 86 1015.0
20260904131803 80 355 1.0 2.0 0.00 0.00 0.00 86 1015.0
20260904131704 80 355 1.0 2.0 0.00 0.00 0.00 87 1015.0
20260904131604 80 355 1.0 2.0 0.00 0.00 0.00 87 1015.0
20260904131504 80 355 1.0 2.0 0.00 0.00 0.00 87 1015.0
20260904131303 79 355 0.0 2.0 0.00 0.00 0.00 88 1015.0
20260904131203 79 355 0.0 2.0 0.00 0.00 0.00 89 1014.9
20260904131003 79 355 0.0 2.0 0.00 0.00 0.00 89 1015.0
20260904130904 79 355 0.0 2.0 0.00 0.00 0.00 89 1015.0
20260904130804 78 355 0.0 2.0 0.00 0.00 0.00 89 1015.0
20260904130704 78 355 0.0 2.0 0.00 0.00 0.00 90 1015.0
20260904130603 78 355 0.0 2.0 0.00 0.00 0.00 90 1015.0
20260904130503 78 355 0.0 2.0 0.00 0.00 0.00 91 1015.0
20260904130303 77 355 0.0 2.0 0.00 0.00 0.00 91 1015.0
20260904130203 77 355 0.0 1.0 0.00 0.00 0.00 91 1015.0
20260904130104 77 355 0.0 2.0 0.00 0.00 0.00 92 1015.0
20260904130004 77 355 0.0 2.0 0.00 0.00 0.00 92 1015.0
20260904125904 77 355 0.0 2.0 0.00 0.00 0.00 92 1015.0
20260904125804 77 355 1.0 2.0 0.00 0.00 0.00 92 1015.0
20260904125704 77 355 1.0 2.0 0.00 0.00 0.00 92 1015.0
20260904125603 77 355 1.0 2.0 0.00 0.00 0.00 92 1014.9
20260904125503 76 355 1.0 2.0 0.00 0.00 0.00 93 1014.9
20260904125404 76 355 1.0 2.0 0.00 0.00 0.00 93 1014.9
20260904125316 76 355 1.0 2.0 0.00 0.00 0.00 93 1014.9
20260904125203 76 355 1.0 2.0 0.00 0.00 0.00 94 1014.9
20260904125118 76 355 1.0 2.0 0.00 0.00 0.00 94 1014.9
20260904124803 75 355 0.0 2.0 0.00 0.00 0.00 94 1014.9
20260904124718 75 355 0.0 2.0 0.00 0.00 0.00 94 1014.9
20260904124703 75 355 0.0 1.0 0.00 0.00 0.00 94 1014.9
20260904124603 75 355 0.0 1.0 0.00 0.00 0.00 94 1014.9
20260904124403 75 355 0.0 1.0 0.00 0.00 0.00 94 1014.9
20260904124303 75 355 0.0 1.0 0.00 0.00 0.00 94 1014.8
20260904124203 75 355 0.0 1.0 0.00 0.00 0.00 94 1014.8
20260904124103 75 355 0.0 1.0 0.00 0.00 0.00 94 1014.8
20260904124004 74 355 0.0 1.0 0.00 0.00 0.00 94 1014.7
20260904123904 74 355 0.0 1.0 0.00 0.00 0.00 94 1014.7
20260904123804 74 355 0.0 1.0 0.00 0.00 0.00 94 1014.8
20260904123704 74 355 0.0 1.0 0.00 0.00 0.00 94 1014.7
20260904123619 74 355 0.0 1.0 0.00 0.00 0.00 94 1014.7
20260904123504 74 355 0.0 1.0 0.00 0.00 0.00 94 1014.7
20260904123303 74 355 0.0 1.0 0.00 0.00 0.00 94 1014.7
20260904123203 74 355 0.0 1.0 0.00 0.00 0.00 94 1014.7
20260904123103 74 355 0.0 1.0 0.00 0.00 0.00 94 1014.7
20260904123004 74 355 0.0 1.0 0.00 0.00 0.00 94 1014.7
20260904122904 74 355 0.0 1.0 0.00 0.00 0.00 94 1014.7
20260904122803 74 0 0.0 0.0 0.00 0.00 0.00 94 1014.6
20260904122704 73 0 0.0 0.0 0.00 0.00 0.00 94 1014.7
20260904122604 73 0 0.0 0.0 0.00 0.00 0.00 94 1014.7
20260904122503 73 0 0.0 0.0 0.00 0.00 0.00 94 1014.6
20260904122404 73 0 0.0 0.0 0.00 0.00 0.00 94 1014.6
20260904122306 73 0 0.0 0.0 0.00 0.00 0.00 94 1014.6
20260904122204 73 0 0.0 0.0 0.00 0.00 0.00 94 1014.6
20260904122104 73 0 0.0 0.0 0.00 0.00 0.00 94 1014.6
20260904122004 73 0 0.0 0.0 0.00 0.00 0.00 94 1014.6
20260904121904 73 0 0.0 0.0 0.00 0.00 0.00 93 1014.6
20260904121803 73 0 0.0 0.0 0.00 0.00 0.00 93 1014.6
20260904121704 73 0 0.0 0.0 0.00 0.00 0.00 93 1014.6
20260904121603 73 0 0.0 0.0 0.00 0.00 0.00 93 1014.6
20260904121503 73 0 0.0 0.0 0.00 0.00 0.00 93 1014.6
20260904121403 73 0 0.0 0.0 0.00 0.00 0.00 93 1014.6
20260904121303 73 0 0.0 0.0 0.00 0.00 0.00 93 1014.6
20260904121203 72 0 0.0 0.0 0.00 0.00 0.00 93 1014.6
20260904121003 72 0 0.0 0.0 0.00 0.00 0.00 93 1014.6
20260904120904 72 0 0.0 0.0 0.00 0.00 0.00 93 1014.6
20260904120803 72 0 0.0 0.0 0.00 0.00 0.00 93 1014.6
20260904120603 72 0 0.0 0.0 0.00 0.00 0.00 93 1014.7
20260904120503 72 0 0.0 0.0 0.00 0.00 0.00 93 1014.7
20260904120404 72 0 0.0 0.0 0.00 0.00 0.00 93 1014.7
20260904120303 72 355 0.0 1.0 0.00 0.00 0.00 93 1014.7
20260904120204 72 355 0.0 1.0 0.00 0.00 0.00 93 1014.7
20260904120003 72 356 0.0 1.0 0.00 0.00 0.00 93 1014.7
20260904115903 72 356 0.0 1.0 0.00 0.00 0.00 93 1014.7
20260904115803 72 356 0.0 1.0 0.00 0.00 0.00 93 1014.7
20260904115703 72 356 0.0 1.0 0.00 0.00 0.00 93 1014.7
20260904115604 72 356 0.0 1.0 0.00 0.00 0.00 93 1014.7
20260904115504 72 356 0.0 1.0 0.00 0.00 0.00 93 1014.7
20260904115403 72 356 0.0 1.0 0.00 0.00 0.00 93 1014.6
20260904115306 72 356 0.0 1.0 0.00 0.00 0.00 93 1014.6
20260904115204 72 357 0.0 1.0 0.00 0.00 0.00 93 1014.7
20260904115104 72 4 0.0 1.0 0.00 0.00 0.00 93 1014.6
20260904115004 72 0 0.0 0.0 0.00 0.00 0.00 93 1014.6
20260904114903 72 0 0.0 0.0 0.00 0.00 0.00 93 1014.7
20260904114803 72 0 0.0 0.0 0.00 0.00 0.00 93 1014.6
20260904114704 72 0 0.0 0.0 0.00 0.00 0.00 93 1014.6
20260904114603 72 0 0.0 0.0 0.00 0.00 0.00 93 1014.6
20260904114503 72 0 0.0 0.0 0.00 0.00 0.00 93 1014.6
20260904114404 72 0 0.0 0.0 0.00 0.00 0.00 93 1014.5
20260904114203 72 0 0.0 0.0 0.00 0.00 0.00 93 1014.6
20260904114104 72 0 0.0 0.0 0.00 0.00 0.00 93 1014.5
20260904113903 72 0 0.0 0.0 0.00 0.00 0.00 93 1014.5
20260904113804 72 0 0.0 0.0 0.00 0.00 0.00 93 1014.5
20260904113603 72 0 0.0 0.0 0.00 0.00 0.00 93 1014.5
20260904113504 72 0 0.0 0.0 0.00 0.00 0.00 93 1014.5
20260904113403 72 0 0.0 0.0 0.00 0.00 0.00 93 1014.5
20260904113303 72 0 0.0 0.0 0.00 0.00 0.00 93 1014.5
20260904113104 72 0 0.0 0.0 0.00 0.00 0.00 92 1014.5
20260904113003 72 0 0.0 0.0 0.00 0.00 0.00 92 1014.4
20260904112804 72 0 0.0 0.0 0.00 0.00 0.00 92 1014.4
20260904112704 72 0 0.0 0.0 0.00 0.00 0.00 92 1014.4
20260904112603 72 0 0.0 0.0 0.00 0.00 0.00 92 1014.4
20260904112504 72 0 0.0 0.0 0.00 0.00 0.00 92 1014.3
20260904112403 72 0 0.0 0.0 0.00 0.00 0.00 92 1014.3
20260904112305 72 0 0.0 0.0 0.00 0.00 0.00 92 1014.2
20260904112203 72 0 0.0 0.0 0.00 0.00 0.00 92 1014.2
20260904112104 72 0 0.0 0.0 0.00 0.00 0.00 92 1014.2
20260904112003 72 0 0.0 0.0 0.00 0.00 0.00 92 1014.2
20260904111904 72 0 0.0 0.0 0.00 0.00 0.00 92 1014.2
20260904111803 72 0 0.0 0.0 0.00 0.00 0.00 91 1014.2
20260904111703 72 0 0.0 0.0 0.00 0.00 0.00 91 1014.1
20260904111603 72 0 0.0 0.0 0.00 0.00 0.00 91 1014.1
20260904111504 72 0 0.0 0.0 0.00 0.00 0.00 92 1014.1
20260904111404 72 0 0.0 0.0 0.00 0.00 0.00 92 1014.1
20260904111303 72 0 0.0 0.0 0.00 0.00 0.00 92 1014.1
20260904111203 72 0 0.0 0.0 0.00 0.00 0.00 92 1014.0
20260904111103 72 0 0.0 0.0 0.00 0.00 0.00 91 1014.0
20260904111004 72 0 0.0 0.0 0.00 0.00 0.00 91 1014.0
20260904110904 72 0 0.0 0.0 0.00 0.00 0.00 91 1014.0
20260904110803 72 0 0.0 0.0 0.00 0.00 0.00 91 1014.0
20260904110704 72 0 0.0 0.0 0.00 0.00 0.00 91 1014.0
20260904110603 72 0 0.0 0.0 0.00 0.00 0.00 91 1014.0
20260904110503 72 0 0.0 0.0 0.00 0.00 0.00 91 1014.0
20260904110403 72 0 0.0 0.0 0.00 0.00 0.00 91 1014.0
20260904110303 72 0 0.0 0.0 0.00 0.00 0.00 91 1013.9
20260904110203 72 0 0.0 0.0 0.00 0.00 0.00 91 1013.9
20260904110004 72 0 0.0 0.0 0.00 0.00 0.00 91 1013.9
20260904105903 72 0 0.0 0.0 0.00 0.00 0.00 91 1013.9
20260904105803 72 0 0.0 0.0 0.00 0.00 0.00 91 1013.9
20260904105703 72 0 0.0 0.0 0.00 0.00 0.00 91 1013.9
20260904105604 72 0 0.0 0.0 0.00 0.00 0.00 91 1013.9
20260904105503 72 0 0.0 0.0 0.00 0.00 0.00 91 1013.9
20260904105403 72 0 0.0 0.0 0.00 0.00 0.00 91 1013.9
20260904105306 72 0 0.0 0.0 0.00 0.00 0.00 92 1013.9
20260904105204 72 0 0.0 0.0 0.00 0.00 0.00 92 1013.9
20260904105103 73 0 0.0 0.0 0.00 0.00 0.00 92 1013.9
20260904105003 73 0 0.0 0.0 0.00 0.00 0.00 92 1013.8
20260904104904 73 0 0.0 0.0 0.00 0.00 0.00 92 1013.8
20260904104803 73 0 0.0 0.0 0.00 0.00 0.00 91 1013.8
20260904104703 73 0 0.0 0.0 0.00 0.00 0.00 91 1013.8
20260904104604 73 0 0.0 0.0 0.00 0.00 0.00 92 1013.8
20260904104504 73 0 0.0 0.0 0.00 0.00 0.00 91 1013.8
20260904104403 73 0 0.0 0.0 0.00 0.00 0.00 91 1013.7
20260904104303 73 0 0.0 0.0 0.00 0.00 0.00 91 1013.7
20260904104204 73 0 0.0 0.0 0.00 0.00 0.00 91 1013.7
20260904104104 73 0 0.0 0.0 0.00 0.00 0.00 91 1013.7
20260904104018 73 0 0.0 0.0 0.00 0.00 0.00 91 1013.7
20260904103903 73 0 0.0 0.0 0.00 0.00 0.00 91 1013.7
20260904103704 73 0 0.0 0.0 0.00 0.00 0.00 92 1013.7
20260904103605 73 0 0.0 0.0 0.00 0.00 0.00 92 1013.7
20260904103504 73 0 0.0 0.0 0.00 0.00 0.00 91 1013.7
20260904103404 73 0 0.0 0.0 0.00 0.00 0.00 91 1013.7
20260904103303 73 0 0.0 0.0 0.00 0.00 0.00 91 1013.7
20260904103204 73 0 0.0 0.0 0.00 0.00 0.00 91 1013.7
20260904103103 73 0 0.0 0.0 0.00 0.00 0.00 91 1013.7
20260904103003 73 0 0.0 0.0 0.00 0.00 0.00 91 1013.7
20260904102904 73 0 0.0 0.0 0.00 0.00 0.00 91 1013.7
20260904102803 73 0 0.0 0.0 0.00 0.00 0.00 91 1013.7
20260904102704 73 0 0.0 0.0 0.00 0.00 0.00 91 1013.7
20260904102603 73 0 0.0 0.0 0.00 0.00 0.00 91 1013.7
20260904102503 73 0 0.0 0.0 0.00 0.00 0.00 91 1013.7
20260904102403 73 0 0.0 0.0 0.00 0.00 0.00 91 1013.7
20260904102306 73 0 0.0 0.0 0.00 0.00 0.00 91 1013.7
20260904102203 73 0 0.0 0.0 0.00 0.00 0.00 91 1013.7
20260904102103 73 0 0.0 0.0 0.00 0.00 0.00 91 1013.7
20260904102003 73 0 0.0 0.0 0.00 0.00 0.00 91 1013.7
20260904101903 73 0 0.0 0.0 0.00 0.00 0.00 91 1013.6
20260904101803 73 0 0.0 0.0 0.00 0.00 0.00 91 1013.6
20260904101704 73 0 0.0 0.0 0.00 0.00 0.00 91 1013.6
20260904101603 73 0 0.0 0.0 0.00 0.00 0.00 91 1013.6
20260904101503 73 0 0.0 0.0 0.00 0.00 0.00 91 1013.6
20260904101404 73 0 0.0 0.0 0.00 0.00 0.00 91 1013.6
20260904101304 73 0 0.0 0.0 0.00 0.00 0.00 91 1013.6
20260904101204 73 0 0.0 0.0 0.00 0.00 0.00 91 1013.6
20260904101003 73 0 0.0 0.0 0.00 0.00 0.00 91 1013.7
20260904100903 73 0 0.0 0.0 0.00 0.00 0.00 91 1013.7
20260904100803 73 0 0.0 0.0 0.00 0.00 0.00 91 1013.7
20260904100703 73 0 0.0 0.0 0.00 0.00 0.00 91 1013.7
20260904100603 73 0 0.0 0.0 0.00 0.00 0.00 91 1013.7
20260904100503 73 0 0.0 0.0 0.00 0.00 0.00 91 1013.7
20260904100403 73 0 0.0 0.0 0.00 0.00 0.00 91 1013.7
20260904100303 73 0 0.0 0.0 0.00 0.00 0.00 91 1013.7
20260904100203 73 0 0.0 0.0 0.00 0.00 0.00 91 1013.7
20260904100104 73 0 0.0 0.0 0.00 0.00 0.00 91 1013.7
20260904100004 73 0 0.0 0.0 0.00 0.00 0.00 91 1013.7
20260904095903 73 0 0.0 0.0 0.00 0.00 0.00 91 1013.7
20260904095804 73 0 0.0 0.0 0.00 0.00 0.00 91 1013.7
20260904095704 73 0 0.0 0.0 0.00 0.00 0.00 91 1013.7
20260904095604 73 0 0.0 0.0 0.00 0.00 0.00 91 1013.7
20260904095503 73 0 0.0 0.0 0.00 0.00 0.00 91 1013.6
20260904095403 73 0 0.0 0.0 0.00 0.00 0.00 91 1013.6
20260904095306 73 0 0.0 0.0 0.00 0.00 0.00 91 1013.7
20260904095204 73 0 0.0 0.0 0.00 0.00 0.00 91 1013.7
20260904095103 73 0 0.0 0.0 0.00 0.00 0.00 91 1013.7
20260904095003 73 0 0.0 0.0 0.00 0.00 0.00 91 1013.7
20260904094904 73 0 0.0 0.0 0.00 0.00 0.00 91 1013.7
20260904094803 73 0 0.0 0.0 0.00 0.00 0.00 91 1013.7
20260904094704 73 0 0.0 0.0 0.00 0.00 0.00 91 1013.6
20260904094603 73 0 0.0 0.0 0.00 0.00 0.00 91 1013.6
20260904094503 73 0 0.0 0.0 0.00 0.00 0.00 91 1013.6
20260904094403 73 0 0.0 0.0 0.00 0.00 0.00 91 1013.6
20260904094303 73 0 0.0 0.0 0.00 0.00 0.00 91 1013.6
20260904094203 73 0 0.0 0.0 0.00 0.00 0.00 91 1013.7
20260904094103 73 0 0.0 0.0 0.00 0.00 0.00 91 1013.7
20260904094003 73 0 0.0 0.0 0.00 0.00 0.00 91 1013.7
20260904093903 74 0 0.0 0.0 0.00 0.00 0.00 91 1013.7
20260904093803 74 0 0.0 0.0 0.00 0.00 0.00 91 1013.7
20260904093703 74 0 0.0 0.0 0.00 0.00 0.00 91 1013.6
20260904093604 74 0 0.0 0.0 0.00 0.00 0.00 91 1013.6
20260904093419 74 0 0.0 0.0 0.00 0.00 0.00 91 1013.6
20260904093304 74 0 0.0 0.0 0.00 0.00 0.00 91 1013.6
20260904093103 74 0 0.0 0.0 0.00 0.00 0.00 90 1013.6
20260904093003 74 0 0.0 0.0 0.00 0.00 0.00 90 1013.6
20260904092804 74 0 0.0 0.0 0.00 0.00 0.00 90 1013.6
20260904092704 74 0 0.0 0.0 0.00 0.00 0.00 90 1013.6
20260904092603 74 0 0.0 0.0 0.00 0.00 0.00 90 1013.6
20260904092503 74 0 0.0 0.0 0.00 0.00 0.00 90 1013.6
20260904092306 74 0 0.0 0.0 0.00 0.00 0.00 90 1013.5
20260904092203 74 0 0.0 0.0 0.00 0.00 0.00 90 1013.5
20260904092103 74 0 0.0 0.0 0.00 0.00 0.00 90 1013.6
20260904091903 74 0 0.0 0.0 0.00 0.00 0.00 90 1013.5
20260904091803 74 0 0.0 0.0 0.00 0.00 0.00 90 1013.5
20260904091503 74 0 0.0 0.0 0.00 0.00 0.00 90 1013.5
20260904091403 74 0 0.0 0.0 0.00 0.00 0.00 90 1013.5
20260904091303 74 0 0.0 0.0 0.00 0.00 0.00 90 1013.5
20260904091203 74 0 0.0 0.0 0.00 0.00 0.00 90 1013.5
20260904091103 74 0 0.0 0.0 0.00 0.00 0.00 90 1013.6
20260904091004 74 0 0.0 0.0 0.00 0.00 0.00 90 1013.6
20260904090903 74 0 0.0 0.0 0.00 0.00 0.00 90 1013.6
20260904090803 74 0 0.0 0.0 0.00 0.00 0.00 90 1013.6
20260904090703 74 0 0.0 0.0 0.00 0.00 0.00 90 1013.6
20260904090504 74 0 0.0 0.0 0.00 0.00 0.00 90 1013.6
20260904090404 74 0 0.0 0.0 0.00 0.00 0.00 90 1013.6
20260904090304 74 0 0.0 0.0 0.00 0.00 0.00 90 1013.5
20260904090204 74 0 0.0 0.0 0.00 0.00 0.00 90 1013.5
20260904090003 74 0 0.0 0.0 0.00 0.00 0.00 90 1013.5
20260904085904 74 0 0.0 0.0 0.00 0.00 0.00 90 1013.5
20260904085703 74 0 0.0 0.0 0.00 0.00 0.00 90 1013.5
20260904085603 74 0 0.0 0.0 0.00 0.00 0.00 90 1013.5
20260904085503 74 0 0.0 0.0 0.00 0.00 0.00 90 1013.5
20260904085403 74 0 0.0 0.0 0.00 0.00 0.00 90 1013.5
20260904085305 74 0 0.0 0.0 0.00 0.00 0.00 90 1013.5
20260904085204 74 0 0.0 0.0 0.00 0.00 0.00 90 1013.5
20260904085103 74 0 0.0 0.0 0.00 0.00 0.00 90 1013.5
20260904084803 74 0 0.0 0.0 0.00 0.00 0.00 90 1013.5
20260904084703 74 0 0.0 0.0 0.00 0.00 0.00 90 1013.5
20260904084603 74 0 0.0 0.0 0.00 0.00 0.00 90 1013.5
20260904084503 74 0 0.0 0.0 0.00 0.00 0.00 90 1013.4
20260904084403 74 0 0.0 0.0 0.00 0.00 0.00 90 1013.4
20260904084303 74 0 0.0 0.0 0.00 0.00 0.00 90 1013.4
20260904084103 74 0 0.0 0.0 0.00 0.00 0.00 90 1013.4
20260904084003 74 0 0.0 0.0 0.00 0.00 0.00 90 1013.4
20260904083903 74 0 0.0 0.0 0.00 0.00 0.00 90 1013.3
20260904083803 74 0 0.0 0.0 0.00 0.00 0.00 90 1013.3
20260904083703 74 0 0.0 0.0 0.00 0.00 0.00 90 1013.3
20260904083603 74 0 0.0 0.0 0.00 0.00 0.00 90 1013.3
20260904083503 74 0 0.0 0.0 0.00 0.00 0.00 90 1013.3
20260904083203 74 0 0.0 0.0 0.00 0.00 0.00 90 1013.3
20260904083103 74 0 0.0 0.0 0.00 0.00 0.00 90 1013.3
20260904082903 74 0 0.0 0.0 0.00 0.00 0.00 90 1013.3
20260904082804 74 0 0.0 0.0 0.00 0.00 0.00 90 1013.3
20260904082704 74 0 0.0 0.0 0.00 0.00 0.00 90 1013.3
20260904082603 74 0 0.0 0.0 0.00 0.00 0.00 90 1013.3
20260904082503 74 0 0.0 0.0 0.00 0.00 0.00 90 1013.3
20260904082404 74 0 0.0 0.0 0.00 0.00 0.00 89 1013.3
20260904082306 74 0 0.0 0.0 0.00 0.00 0.00 89 1013.3
20260904082217 74 0 0.0 0.0 0.00 0.00 0.00 89 1013.3
20260904082104 74 0 0.0 0.0 0.00 0.00 0.00 89 1013.3
20260904081903 74 0 0.0 0.0 0.00 0.00 0.00 89 1013.4
20260904081803 74 0 0.0 0.0 0.00 0.00 0.00 89 1013.4
20260904081703 74 0 0.0 0.0 0.00 0.00 0.00 89 1013.4
20260904081617 74 0 0.0 0.0 0.00 0.00 0.00 89 1013.4
20260904081503 74 0 0.0 0.0 0.00 0.00 0.00 89 1013.4
20260904081204 74 0 0.0 0.0 0.00 0.00 0.00 89 1013.3
20260904081103 74 0 0.0 0.0 0.00 0.00 0.00 89 1013.4
20260904081004 74 0 0.0 0.0 0.00 0.00 0.00 89 1013.4
20260904080904 74 0 0.0 0.0 0.00 0.00 0.00 89 1013.4
20260904080804 74 0 0.0 0.0 0.00 0.00 0.00 89 1013.4
20260904080718 74 0 0.0 0.0 0.00 0.00 0.00 89 1013.4
20260904080704 75 0 0.0 0.0 0.00 0.00 0.00 89 1013.4
20260904080604 75 0 0.0 0.0 0.00 0.00 0.00 89 1013.4
20260904080403 75 0 0.0 0.0 0.00 0.00 0.00 89 1013.3
20260904080319 75 0 0.0 0.0 0.00 0.00 0.00 89 1013.3
20260904080304 75 0 0.0 0.0 0.00 0.00 0.00 89 1013.4
20260904080204 75 0 0.0 0.0 0.00 0.00 0.00 89 1013.4
20260904080004 75 0 0.0 0.0 0.00 0.00 0.00 89 1013.3
20260904075904 75 0 0.0 0.0 0.00 0.00 0.00 89 1013.3
20260904075804 75 0 0.0 0.0 0.00 0.00 0.00 89 1013.3
20260904075703 75 0 0.0 0.0 0.00 0.00 0.00 89 1013.3
20260904075603 75 0 0.0 0.0 0.00 0.00 0.00 89 1013.4
20260904075403 75 0 0.0 0.0 0.00 0.00 0.00 89 1013.3
20260904075306 75 0 0.0 0.0 0.00 0.00 0.00 89 1013.3
20260904075203 75 0 0.0 0.0 0.00 0.00 0.00 89 1013.3
20260904075118 75 0 0.0 0.0 0.00 0.00 0.00 89 1013.4
20260904075004 75 0 0.0 0.0 0.00 0.00 0.00 89 1013.4
20260904074803 75 0 0.0 0.0 0.00 0.00 0.00 89 1013.3
20260904074703 75 0 0.0 0.0 0.00 0.00 0.00 89 1013.3
20260904074603 75 0 0.0 0.0 0.00 0.00 0.00 89 1013.3
20260904074504 75 0 0.0 0.0 0.00 0.00 0.00 89 1013.3
20260904074403 75 0 0.0 0.0 0.00 0.00 0.00 89 1013.3
20260904074304 75 0 0.0 0.0 0.00 0.00 0.00 89 1013.4
20260904074204 75 0 0.0 0.0 0.00 0.00 0.00 89 1013.4
20260904074103 75 0 0.0 0.0 0.00 0.00 0.00 89 1013.4
20260904074003 75 0 0.0 0.0 0.00 0.00 0.00 89 1013.3
20260904073903 75 0 0.0 0.0 0.00 0.00 0.00 88 1013.3
20260904073803 75 0 0.0 0.0 0.00 0.00 0.00 88 1013.4
20260904073703 75 0 0.0 0.0 0.00 0.00 0.00 88 1013.4
20260904073603 75 0 0.0 0.0 0.00 0.00 0.00 88 1013.3
20260904073519 75 0 0.0 0.0 0.00 0.00 0.00 88 1013.3
20260904073404 75 0 0.0 0.0 0.00 0.00 0.00 88 1013.3
20260904073203 75 0 0.0 0.0 0.00 0.00 0.00 88 1013.3
20260904073103 75 0 0.0 0.0 0.00 0.00 0.00 88 1013.3
20260904073003 75 0 0.0 0.0 0.00 0.00 0.00 88 1013.3
20260904072903 75 0 0.0 0.0 0.00 0.00 0.00 88 1013.3
20260904072703 75 0 0.0 0.0 0.00 0.00 0.00 88 1013.4
20260904072603 75 0 0.0 0.0 0.00 0.00 0.00 88 1013.4
20260904072504 75 0 0.0 0.0 0.00 0.00 0.00 88 1013.3
20260904072403 75 0 0.0 0.0 0.00 0.00 0.00 88 1013.3
20260904072305 75 0 0.0 0.0 0.00 0.00 0.00 88 1013.3
20260904072203 75 0 0.0 0.0 0.00 0.00 0.00 88 1013.3
20260904072104 75 0 0.0 0.0 0.00 0.00 0.00 88 1013.3
20260904072003 75 0 0.0 0.0 0.00 0.00 0.00 88 1013.3
20260904071903 75 0 0.0 0.0 0.00 0.00 0.00 88 1013.3
20260904071803 75 0 0.0 0.0 0.00 0.00 0.00 88 1013.3
20260904071703 75 0 0.0 0.0 0.00 0.00 0.00 88 1013.3
20260904071603 75 0 0.0 0.0 0.00 0.00 0.00 88 1013.3
20260904071403 75 0 0.0 0.0 0.00 0.00 0.00 88 1013.3
20260904071303 75 0 0.0 0.0 0.00 0.00 0.00 88 1013.3
20260904071203 75 0 0.0 0.0 0.00 0.00 0.00 88 1013.2
20260904071104 75 0 0.0 0.0 0.00 0.00 0.00 88 1013.2
20260904071003 75 0 0.0 0.0 0.00 0.00 0.00 88 1013.3
20260904070903 75 0 0.0 0.0 0.00 0.00 0.00 88 1013.3
20260904070804 75 0 0.0 0.0 0.00 0.00 0.00 88 1013.3
20260904070703 75 0 0.0 0.0 0.00 0.00 0.00 88 1013.3
20260904070604 75 0 0.0 0.0 0.00 0.00 0.00 88 1013.3
20260904070504 75 0 0.0 0.0 0.00 0.00 0.00 88 1013.3
20260904070303 75 0 0.0 0.0 0.00 0.00 0.00 88 1013.3
20260904070203 75 0 0.0 0.0 0.00 0.00 0.00 88 1013.3
20260904070003 75 0 0.0 0.0 0.00 0.00 0.00 88 1013.3
20260904065903 75 0 0.0 0.0 0.00 0.00 0.00 88 1013.3
20260904065817 76 0 0.0 0.0 0.00 0.00 0.00 88 1013.3
20260904065803 75 0 0.0 0.0 0.00 0.00 0.00 88 1013.3
20260904065617 75 0 0.0 0.0 0.00 0.00 0.00 87 1013.3
20260904065504 76 0 0.0 0.0 0.00 0.00 0.00 88 1013.3
20260904065306 76 0 0.0 0.0 0.00 0.00 0.00 87 1013.4
20260904065204 76 0 0.0 0.0 0.00 0.00 0.00 87 1013.4
20260904065103 76 0 0.0 0.0 0.00 0.00 0.00 87 1013.4
20260904065003 76 0 0.0 0.0 0.00 0.00 0.00 87 1013.4
20260904064903 76 0 0.0 0.0 0.00 0.00 0.00 87 1013.3
20260904064703 76 0 0.0 0.0 0.00 0.00 0.00 87 1013.4
20260904064603 76 0 0.0 0.0 0.00 0.00 0.00 87 1013.4
20260904064503 76 0 0.0 0.0 0.00 0.00 0.00 88 1013.4
20260904064318 76 0 0.0 0.0 0.00 0.00 0.00 88 1013.4
20260904064204 76 0 0.0 0.0 0.00 0.00 0.00 88 1013.4
20260904064004 76 0 0.0 0.0 0.00 0.00 0.00 88 1013.5
20260904063903 76 0 0.0 0.0 0.00 0.00 0.00 88 1013.5
20260904063803 76 0 0.0 0.0 0.00 0.00 0.00 88 1013.4
20260904063703 76 0 0.0 0.0 0.00 0.00 0.00 87 1013.4
20260904063603 76 0 0.0 0.0 0.00 0.00 0.00 87 1013.5
20260904063504 76 0 0.0 0.0 0.00 0.00 0.00 87 1013.5
20260904063403 76 0 0.0 0.0 0.00 0.00 0.00 87 1013.5
20260904063303 76 0 0.0 0.0 0.00 0.00 0.00 87 1013.6
20260904063204 76 0 0.0 0.0 0.00 0.00 0.00 87 1013.6
20260904063103 76 0 0.0 0.0 0.00 0.00 0.00 87 1013.5
20260904063004 76 0 0.0 0.0 0.00 0.00 0.00 87 1013.5
20260904062904 76 0 0.0 0.0 0.00 0.00 0.00 87 1013.6
20260904062803 76 0 0.0 0.0 0.00 0.00 0.00 87 1013.5
20260904062704 76 0 0.0 0.0 0.00 0.00 0.00 87 1013.5
20260904062603 76 0 0.0 0.0 0.00 0.00 0.00 87 1013.5
20260904062504 76 0 0.0 0.0 0.00 0.00 0.00 87 1013.5
20260904062403 76 0 0.0 0.0 0.00 0.00 0.00 87 1013.5
20260904062306 76 0 0.0 0.0 0.00 0.00 0.00 87 1013.6
20260904062204 76 0 0.0 0.0 0.00 0.00 0.00 87 1013.6
20260904062104 76 0 0.0 0.0 0.00 0.00 0.00 87 1013.6
20260904062003 76 0 0.0 0.0 0.00 0.00 0.00 87 1013.6
20260904061903 76 0 0.0 0.0 0.00 0.00 0.00 87 1013.6
20260904061804 76 0 0.0 0.0 0.00 0.00 0.00 86 1013.6
20260904061703 76 0 0.0 0.0 0.00 0.00 0.00 86 1013.6
20260904061603 76 0 0.0 0.0 0.00 0.00 0.00 86 1013.6
20260904061503 76 0 0.0 0.0 0.00 0.00 0.00 86 1013.5
20260904061403 76 0 0.0 0.0 0.00 0.00 0.00 86 1013.5
20260904061304 76 0 0.0 0.0 0.00 0.00 0.00 86 1013.5
20260904061203 76 0 0.0 0.0 0.00 0.00 0.00 86 1013.5
20260904061103 76 0 0.0 0.0 0.00 0.00 0.00 86 1013.5
20260904061004 76 0 0.0 0.0 0.00 0.00 0.00 86 1013.5
20260904060916 76 0 0.0 0.0 0.00 0.00 0.00 86 1013.5
20260904060803 76 0 0.0 0.0 0.00 0.00 0.00 86 1013.5
20260904060603 76 0 0.0 0.0 0.00 0.00 0.00 86 1013.5
20260904060503 76 0 0.0 0.0 0.00 0.00 0.00 86 1013.6
20260904060303 76 0 0.0 0.0 0.00 0.00 0.00 86 1013.6
20260904060203 76 0 0.0 0.0 0.00 0.00 0.00 86 1013.6
20260904060103 76 0 0.0 0.0 0.00 0.00 0.00 86 1013.6
20260904060003 76 0 0.0 0.0 0.00 0.00 0.00 86 1013.6
20260904055803 76 0 0.0 0.0 0.00 0.00 0.00 86 1013.6
20260904055703 76 0 0.0 0.0 0.00 0.00 0.00 86 1013.6
20260904055603 76 0 0.0 0.0 0.00 0.00 0.00 86 1013.6
20260904055503 76 0 0.0 0.0 0.00 0.00 0.00 86 1013.7
20260904055403 76 0 0.0 0.0 0.00 0.00 0.00 86 1013.7
20260904055306 76 0 0.0 0.0 0.00 0.00 0.00 86 1013.7
20260904055203 76 0 0.0 0.0 0.00 0.00 0.00 86 1013.6
20260904055104 77 0 0.0 0.0 0.00 0.00 0.00 86 1013.6
20260904055003 76 0 0.0 0.0 0.00 0.00 0.00 86 1013.6
20260904054903 76 0 0.0 0.0 0.00 0.00 0.00 86 1013.6
20260904054817 77 0 0.0 0.0 0.00 0.00 0.00 85 1013.6
20260904054803 76 0 0.0 0.0 0.00 0.00 0.00 85 1013.6
20260904054703 77 0 0.0 0.0 0.00 0.00 0.00 85 1013.5
20260904054504 77 0 0.0 0.0 0.00 0.00 0.00 85 1013.5
20260904054403 77 0 0.0 0.0 0.00 0.00 0.00 85 1013.6
20260904054303 77 0 0.0 0.0 0.00 0.00 0.00 85 1013.6
20260904054203 77 0 0.0 0.0 0.00 0.00 0.00 85 1013.6
20260904054103 77 0 0.0 0.0 0.00 0.00 0.00 85 1013.6
20260904054004 77 0 0.0 0.0 0.00 0.00 0.00 85 1013.6
20260904053903 77 0 0.0 0.0 0.00 0.00 0.00 85 1013.6
20260904053703 77 0 0.0 0.0 0.00 0.00 0.00 85 1013.7
20260904053618 77 0 0.0 0.0 0.00 0.00 0.00 85 1013.7
20260904053603 77 0 0.0 0.0 0.00 0.00 0.00 85 1013.6
20260904053503 77 0 0.0 0.0 0.00 0.00 0.00 85 1013.6
20260904053419 77 0 0.0 0.0 0.00 0.00 0.00 85 1013.7
20260904053303 77 0 0.0 0.0 0.00 0.00 0.00 84 1013.7
20260904053104 77 0 0.0 0.0 0.00 0.00 0.00 85 1013.7
20260904053004 77 0 0.0 0.0 0.00 0.00 0.00 85 1013.7
20260904052904 77 0 0.0 0.0 0.00 0.00 0.00 84 1013.8
20260904052803 77 0 0.0 0.0 0.00 0.00 0.00 84 1013.8
20260904052703 77 0 0.0 0.0 0.00 0.00 0.00 84 1013.8
20260904052603 77 0 0.0 0.0 0.00 0.00 0.00 84 1013.8
20260904052504 77 0 0.0 0.0 0.00 0.00 0.00 84 1013.8
20260904052404 77 0 0.0 0.0 0.00 0.00 0.00 84 1013.8
20260904052307 77 0 0.0 0.0 0.00 0.00 0.00 84 1013.8
20260904052104 77 0 0.0 0.0 0.00 0.00 0.00 85 1013.8
20260904052003 77 0 0.0 0.0 0.00 0.00 0.00 85 1013.8
20260904051903 77 0 0.0 0.0 0.00 0.00 0.00 85 1013.8
20260904051804 77 0 0.0 0.0 0.00 0.00 0.00 85 1013.8
20260904051703 77 0 0.0 0.0 0.00 0.00 0.00 85 1013.8
20260904051603 77 0 0.0 0.0 0.00 0.00 0.00 85 1013.8
20260904051503 77 0 0.0 0.0 0.00 0.00 0.00 85 1013.8
20260904051404 77 0 0.0 0.0 0.00 0.00 0.00 84 1013.8
20260904051304 77 0 0.0 0.0 0.00 0.00 0.00 84 1013.8
20260904051103 77 0 0.0 0.0 0.00 0.00 0.00 84 1013.8
20260904051004 77 0 0.0 0.0 0.00 0.00 0.00 84 1013.8
20260904050903 77 0 0.0 0.0 0.00 0.00 0.00 84 1013.8
20260904050803 77 0 0.0 0.0 0.00 0.00 0.00 84 1013.8
20260904050603 77 0 0.0 0.0 0.00 0.00 0.00 84 1013.8
20260904050503 77 0 0.0 0.0 0.00 0.00 0.00 84 1013.8
20260904050403 77 0 0.0 0.0 0.00 0.00 0.00 84 1013.7
20260904050304 77 0 0.0 0.0 0.00 0.00 0.00 84 1013.8
20260904050004 77 0 0.0 0.0 0.00 0.00 0.00 84 1013.8
20260904045904 77 0 0.0 0.0 0.00 0.00 0.00 84 1013.8
20260904045803 77 0 0.0 0.0 0.00 0.00 0.00 84 1013.8
20260904045703 77 0 0.0 0.0 0.00 0.00 0.00 84 1013.8
20260904045603 78 0 0.0 0.0 0.00 0.00 0.00 84 1013.8
20260904045504 77 0 0.0 0.0 0.00 0.00 0.00 84 1013.8
20260904045404 77 0 0.0 0.0 0.00 0.00 0.00 84 1013.8
20260904045307 78 0 0.0 0.0 0.00 0.00 0.00 84 1013.8
20260904045203 78 0 0.0 0.0 0.00 0.00 0.00 84 1013.8
20260904045103 78 0 0.0 0.0 0.00 0.00 0.00 84 1013.8
20260904045003 78 0 0.0 0.0 0.00 0.00 0.00 84 1013.8
20260904044903 78 0 0.0 0.0 0.00 0.00 0.00 84 1013.8
20260904044804 78 0 0.0 0.0 0.00 0.00 0.00 84 1013.8
20260904044704 78 0 0.0 0.0 0.00 0.00 0.00 84 1013.8
20260904044604 78 0 0.0 0.0 0.00 0.00 0.00 84 1013.8
20260904044503 78 0 0.0 0.0 0.00 0.00 0.00 84 1013.8
20260904044403 78 0 0.0 0.0 0.00 0.00 0.00 84 1013.9
20260904044303 78 0 0.0 0.0 0.00 0.00 0.00 84 1013.9
20260904044203 78 0 0.0 0.0 0.00 0.00 0.00 84 1013.9
20260904044005 78 0 0.0 0.0 0.00 0.00 0.00 84 1013.9
20260904043904 78 0 0.0 0.0 0.00 0.00 0.00 84 1013.9
20260904043803 78 0 0.0 0.0 0.00 0.00 0.00 84 1013.9
20260904043603 78 0 0.0 0.0 0.00 0.00 0.00 84 1014.0
20260904043503 78 0 0.0 0.0 0.00 0.00 0.00 84 1014.0
20260904043303 78 0 0.0 0.0 0.00 0.00 0.00 84 1014.0
20260904043203 78 0 0.0 0.0 0.00 0.00 0.00 84 1014.0
20260904043003 78 0 0.0 0.0 0.00 0.00 0.00 84 1014.0
20260904042903 78 0 0.0 0.0 0.00 0.00 0.00 83 1014.0
20260904042803 78 0 0.0 0.0 0.00 0.00 0.00 83 1014.0
20260904042703 78 0 0.0 0.0 0.00 0.00 0.00 83 1014.0
20260904042604 78 0 0.0 0.0 0.00 0.00 0.00 83 1014.0
20260904042518 78 0 0.0 0.0 0.00 0.00 0.00 83 1014.0
20260904042504 78 0 0.0 0.0 0.00 0.00 0.00 83 1013.9
20260904042404 78 0 0.0 0.0 0.00 0.00 0.00 83 1013.9
20260904042203 78 0 0.0 0.0 0.00 0.00 0.00 83 1014.0
20260904042103 78 0 0.0 0.0 0.00 0.00 0.00 83 1014.0
20260904042003 78 0 0.0 0.0 0.00 0.00 0.00 83 1013.9
20260904041904 78 0 0.0 0.0 0.00 0.00 0.00 83 1013.9
20260904041804 78 0 0.0 0.0 0.00 0.00 0.00 83 1014.0
20260904041703 78 0 0.0 0.0 0.00 0.00 0.00 83 1014.0
20260904041604 78 0 0.0 0.0 0.00 0.00 0.00 83 1014.0
20260904041404 78 0 0.0 0.0 0.00 0.00 0.00 83 1014.0
20260904041303 78 0 0.0 0.0 0.00 0.00 0.00 83 1014.0
20260904041203 78 0 0.0 0.0 0.00 0.00 0.00 83 1014.0
20260904041104 78 0 0.0 0.0 0.00 0.00 0.00 83 1014.0
20260904040904 78 0 0.0 0.0 0.00 0.00 0.00 82 1014.0
20260904040804 78 0 0.0 0.0 0.00 0.00 0.00 82 1014.0
20260904040704 78 0 0.0 0.0 0.00 0.00 0.00 82 1014.0
20260904040504 78 0 0.0 0.0 0.00 0.00 0.00 82 1014.1
20260904040403 78 0 0.0 0.0 0.00 0.00 0.00 82 1014.1
20260904040303 78 0 0.0 0.0 0.00 0.00 0.00 82 1014.0
20260904040203 78 0 0.0 0.0 0.00 0.00 0.00 82 1014.0
20260904040103 78 0 0.0 0.0 0.00 0.00 0.00 82 1014.0
20260904040004 78 0 0.0 0.0 0.00 0.00 0.00 82 1014.0
20260904035903 78 0 0.0 0.0 0.00 0.00 0.00 82 1014.0
20260904035803 78 0 0.0 0.0 0.00 0.00 0.00 82 1014.0
20260904035704 78 0 0.0 0.0 0.00 0.00 0.00 82 1014.0
20260904035603 78 0 0.0 0.0 0.00 0.00 0.00 82 1014.0
20260904035503 78 0 0.0 0.0 0.00 0.00 0.00 82 1014.0
20260904035403 78 0 0.0 0.0 0.00 0.00 0.00 82 1014.0
20260904035306 78 0 0.0 0.0 0.00 0.00 0.00 82 1014.0
20260904035204 78 0 0.0 0.0 0.00 0.00 0.00 82 1014.0
20260904035003 79 0 0.0 0.0 0.00 0.00 0.00 82 1014.0
20260904034903 79 0 0.0 0.0 0.00 0.00 0.00 82 1014.0
20260904034804 79 0 0.0 0.0 0.00 0.00 0.00 82 1014.0
20260904034703 79 0 0.0 0.0 0.00 0.00 0.00 82 1014.0
20260904034503 79 0 0.0 0.0 0.00 0.00 0.00 82 1014.0
20260904034403 79 0 0.0 0.0 0.00 0.00 0.00 82 1014.0
20260904034303 79 0 0.0 0.0 0.00 0.00 0.00 82 1014.0
20260904034203 79 0 0.0 0.0 0.00 0.00 0.00 82 1014.0
20260904034003 79 0 0.0 0.0 0.00 0.00 0.00 82 1014.0
20260904033903 79 0 0.0 0.0 0.00 0.00 0.00 81 1014.0
20260904033704 79 0 0.0 0.0 0.00 0.00 0.00 81 1014.0
20260904033604 79 0 0.0 0.0 0.00 0.00 0.00 81 1014.0
20260904033503 79 0 0.0 0.0 0.00 0.00 0.00 82 1014.0
20260904033404 79 0 0.0 0.0 0.00 0.00 0.00 82 1014.0
20260904033304 79 0 0.0 0.0 0.00 0.00 0.00 82 1014.0
20260904033204 79 0 0.0 0.0 0.00 0.00 0.00 82 1014.0
20260904033118 79 0 0.0 0.0 0.00 0.00 0.00 81 1014.0
20260904033103 79 0 0.0 0.0 0.00 0.00 0.00 81 1014.1
20260904033003 79 0 0.0 0.0 0.00 0.00 0.00 81 1014.1
20260904032803 79 0 0.0 0.0 0.00 0.00 0.00 80 1014.0
20260904032703 79 0 0.0 0.0 0.00 0.00 0.00 81 1014.1
20260904032604 79 0 0.0 0.0 0.00 0.00 0.00 81 1014.1
20260904032503 79 0 0.0 0.0 0.00 0.00 0.00 80 1014.1
20260904032305 79 0 0.0 0.0 0.00 0.00 0.00 80 1014.2
20260904032203 79 0 0.0 0.0 0.00 0.00 0.00 80 1014.2
20260904032104 79 0 0.0 0.0 0.00 0.00 0.00 80 1014.2
20260904032003 79 0 0.0 0.0 0.00 0.00 0.00 80 1014.2
20260904031919 79 0 0.0 0.0 0.00 0.00 0.00 80 1014.2
20260904031804 79 0 0.0 0.0 0.00 0.00 0.00 80 1014.2
20260904031603 79 0 0.0 0.0 0.00 0.00 0.00 80 1014.2
20260904031504 79 0 0.0 0.0 0.00 0.00 0.00 80 1014.2
20260904031404 79 0 0.0 0.0 0.00 0.00 0.00 80 1014.2
20260904031303 79 0 0.0 0.0 0.00 0.00 0.00 80 1014.2
20260904031203 79 0 0.0 0.0 0.00 0.00 0.00 80 1014.2
20260904031103 79 0 0.0 0.0 0.00 0.00 0.00 80 1014.2
20260904031003 79 0 0.0 0.0 0.00 0.00 0.00 80 1014.2
20260904030904 79 0 0.0 0.0 0.00 0.00 0.00 80 1014.2
20260904030804 79 0 0.0 0.0 0.00 0.00 0.00 80 1014.1
20260904030704 79 0 0.0 0.0 0.00 0.00 0.00 80 1014.1
20260904030604 79 0 0.0 0.0 0.00 0.00 0.00 80 1014.1
20260904030504 79 0 0.0 0.0 0.00 0.00 0.00 80 1014.1
20260904030304 80 0 0.0 0.0 0.00 0.00 0.00 80 1014.1
20260904030204 80 0 0.0 0.0 0.00 0.00 0.00 80 1014.1
20260904030104 80 0 0.0 0.0 0.00 0.00 0.00 80 1014.1
20260904030016 80 0 0.0 0.0 0.00 0.00 0.00 80 1014.1
20260904025903 80 0 0.0 0.0 0.00 0.00 0.00 80 1014.1
20260904025704 80 0 0.0 0.0 0.00 0.00 0.00 80 1014.1
20260904025603 80 0 0.0 0.0 0.00 0.00 0.00 80 1014.1
20260904025504 80 0 0.0 0.0 0.00 0.00 0.00 80 1014.1
20260904025403 80 0 0.0 0.0 0.00 0.00 0.00 80 1014.1
20260904025306 80 0 0.0 0.0 0.00 0.00 0.00 80 1014.1
20260904025203 80 0 0.0 0.0 0.00 0.00 0.00 80 1014.1
20260904025103 80 0 0.0 0.0 0.00 0.00 0.00 80 1014.1
20260904025004 80 0 0.0 0.0 0.00 0.00 0.00 80 1014.2
20260904024803 80 0 0.0 0.0 0.00 0.00 0.00 80 1014.1
20260904024704 80 0 0.0 0.0 0.00 0.00 0.00 80 1014.2
20260904024603 80 0 0.0 0.0 0.00 0.00 0.00 80 1014.2
20260904024503 80 0 0.0 0.0 0.00 0.00 0.00 80 1014.1
20260904024404 80 0 0.0 0.0 0.00 0.00 0.00 80 1014.1
20260904024203 80 0 0.0 0.0 0.00 0.00 0.00 79 1014.1
20260904024104 80 0 0.0 0.0 0.00 0.00 0.00 79 1014.1
20260904024004 80 0 0.0 0.0 0.00 0.00 0.00 79 1014.1
20260904023903 80 0 0.0 0.0 0.00 0.00 0.00 79 1014.1
20260904023804 80 0 0.0 0.0 0.00 0.00 0.00 79 1014.0
20260904023603 80 0 0.0 0.0 0.00 0.00 0.00 79 1014.1
20260904023503 80 0 0.0 0.0 0.00 0.00 0.00 79 1014.1
20260904023403 80 0 0.0 0.0 0.00 0.00 0.00 79 1014.0
20260904023303 80 0 0.0 0.0 0.00 0.00 0.00 79 1014.0
20260904023204 80 0 0.0 0.0 0.00 0.00 0.00 79 1014.0
20260904023103 80 0 0.0 0.0 0.00 0.00 0.00 79 1014.0
20260904023003 80 0 0.0 0.0 0.00 0.00 0.00 79 1014.0
20260904022904 80 0 0.0 0.0 0.00 0.00 0.00 79 1014.0
20260904022803 80 0 0.0 0.0 0.00 0.00 0.00 79 1014.0
20260904022704 80 0 0.0 0.0 0.00 0.00 0.00 78 1014.0
20260904022503 80 0 0.0 0.0 0.00 0.00 0.00 78 1014.0
20260904022403 81 0 0.0 0.0 0.00 0.00 0.00 78 1014.0
20260904022306 81 0 0.0 0.0 0.00 0.00 0.00 78 1014.0
20260904022204 81 0 0.0 0.0 0.00 0.00 0.00 78 1014.0
20260904022104 81 0 0.0 0.0 0.00 0.00 0.00 77 1014.0
20260904022003 81 0 0.0 0.0 0.00 0.00 0.00 77 1013.9
20260904021903 81 0 0.0 0.0 0.00 0.00 0.00 78 1014.0
20260904021803 81 0 0.0 0.0 0.00 0.00 0.00 78 1014.0
20260904021503 81 0 0.0 0.0 0.00 0.00 0.00 77 1014.0
20260904021403 81 0 0.0 0.0 0.00 0.00 0.00 77 1014.0
20260904021304 81 0 0.0 0.0 0.00 0.00 0.00 77 1014.0
20260904021204 81 0 0.0 0.0 0.00 0.00 0.00 77 1014.0
20260904021118 81 0 0.0 0.0 0.00 0.00 0.00 77 1014.0
20260904021003 81 0 0.0 0.0 0.00 0.00 0.00 77 1014.0
20260904020804 81 0 0.0 0.0 0.00 0.00 0.00 77 1013.9
20260904020703 81 0 0.0 0.0 0.00 0.00 0.00 77 1014.0
20260904020603 81 0 0.0 0.0 0.00 0.00 0.00 76 1013.9
20260904020504 81 0 0.0 0.0 0.00 0.00 0.00 77 1013.9
20260904020403 81 0 0.0 0.0 0.00 0.00 0.00 76 1013.8
20260904020303 81 0 0.0 0.0 0.00 0.00 0.00 76 1013.8
20260904020203 81 0 0.0 0.0 0.00 0.00 0.00 76 1013.8
20260904020003 82 0 0.0 0.0 0.00 0.00 0.00 76 1013.8
20260904015903 82 0 0.0 0.0 0.00 0.00 0.00 76 1013.7
20260904015703 82 0 0.0 0.0 0.00 0.00 0.00 76 1013.7
20260904015603 82 0 0.0 0.0 0.00 0.00 0.00 76 1013.7
20260904015418 82 0 0.0 0.0 0.00 0.00 0.00 76 1013.7
20260904015306 82 0 0.0 0.0 0.00 0.00 0.00 76 1013.7
20260904015103 82 0 0.0 0.0 0.00 0.00 0.00 76 1013.6
20260904015004 82 0 0.0 0.0 0.00 0.00 0.00 76 1013.6
20260904014903 82 0 0.0 0.0 0.00 0.00 0.00 76 1013.6
20260904014704 82 0 0.0 0.0 0.00 0.00 0.00 76 1013.7
20260904014603 82 0 0.0 0.0 0.00 0.00 0.00 76 1013.6
20260904014503 82 0 0.0 0.0 0.00 0.00 0.00 76 1013.6
20260904014404 82 0 0.0 0.0 0.00 0.00 0.00 75 1013.6
20260904014303 82 0 0.0 0.0 0.00 0.00 0.00 75 1013.6
20260904014203 82 0 0.0 0.0 0.00 0.00 0.00 75 1013.6
20260904014103 82 0 0.0 0.0 0.00 0.00 0.00 75 1013.6
20260904014018 82 0 0.0 0.0 0.00 0.00 0.00 75 1013.6
20260904013903 82 0 0.0 0.0 0.00 0.00 0.00 75 1013.6
20260904013703 82 0 0.0 0.0 0.00 0.00 0.00 75 1013.5
20260904013603 82 0 0.0 0.0 0.00 0.00 0.00 75 1013.5
20260904013503 82 0 0.0 0.0 0.00 0.00 0.00 75 1013.5
20260904013404 82 0 0.0 0.0 0.00 0.00 0.00 75 1013.5
20260904013304 82 0 0.0 0.0 0.00 0.00 0.00 75 1013.4
20260904013203 82 0 0.0 0.0 0.00 0.00 0.00 75 1013.4
20260904013103 82 0 0.0 0.0 0.00 0.00 0.00 75 1013.4
20260904013018 82 0 0.0 0.0 0.00 0.00 0.00 75 1013.4
20260904012903 82 0 0.0 0.0 0.00 0.00 0.00 75 1013.4
20260904012703 82 0 0.0 0.0 0.00 0.00 0.00 75 1013.4
20260904012603 82 0 0.0 0.0 0.00 0.00 0.00 75 1013.4
20260904012504 82 0 0.0 0.0 0.00 0.00 0.00 75 1013.4
20260904012306 83 0 0.0 0.0 0.00 0.00 0.00 75 1013.4
20260904012203 83 0 0.0 0.0 0.00 0.00 0.00 75 1013.4
20260904012103 83 0 0.0 0.0 0.00 0.00 0.00 75 1013.4
20260904012003 83 0 0.0 0.0 0.00 0.00 0.00 75 1013.4
20260904011904 83 0 0.0 0.0 0.00 0.00 0.00 75 1013.4
20260904011803 83 0 0.0 0.0 0.00 0.00 0.00 75 1013.4
20260904011703 83 0 0.0 0.0 0.00 0.00 0.00 75 1013.4
20260904011603 83 0 0.0 0.0 0.00 0.00 0.00 75 1013.4
20260904011519 83 0 0.0 0.0 0.00 0.00 0.00 75 1013.3
20260904011403 83 0 0.0 0.0 0.00 0.00 0.00 75 1013.3
20260904011204 83 0 0.0 0.0 0.00 0.00 0.00 75 1013.3
20260904011103 83 0 0.0 0.0 0.00 0.00 0.00 74 1013.3
20260904011003 83 0 0.0 0.0 0.00 0.00 0.00 74 1013.3
20260904010904 83 0 0.0 0.0 0.00 0.00 0.00 74 1013.3
20260904010803 83 0 0.0 0.0 0.00 0.00 0.00 74 1013.3
20260904010703 83 0 0.0 0.0 0.00 0.00 0.00 74 1013.3
20260904010603 83 0 0.0 0.0 0.00 0.00 0.00 75 1013.3
20260904010503 83 0 0.0 0.0 0.00 0.00 0.00 75 1013.3
20260904010403 83 0 0.0 0.0 0.00 0.00 0.00 75 1013.3
20260904010304 83 0 0.0 0.0 0.00 0.00 0.00 75 1013.3
20260904010203 83 0 0.0 0.0 0.00 0.00 0.00 75 1013.3
20260904010003 83 0 0.0 0.0 0.00 0.00 0.00 75 1013.2
20260904005903 83 0 0.0 0.0 0.00 0.00 0.00 75 1013.2
20260904005803 83 0 0.0 0.0 0.00 0.00 0.00 76 1013.2
20260904005703 83 0 0.0 0.0 0.00 0.00 0.00 76 1013.1
20260904005603 83 0 0.0 0.0 0.00 0.00 0.00 76 1013.1
20260904005503 83 0 0.0 0.0 0.00 0.00 0.00 76 1013.1
20260904005403 83 0 0.0 0.0 0.00 0.00 0.00 76 1013.1
20260904005306 83 0 0.0 0.0 0.00 0.00 0.00 76 1013.1
20260904005204 83 0 0.0 0.0 0.00 0.00 0.00 76 1013.0
20260904005103 83 0 0.0 0.0 0.00 0.00 0.00 76 1013.0
20260904005003 83 0 0.0 0.0 0.00 0.00 0.00 76 1013.0
20260904004903 83 0 0.0 0.0 0.00 0.00 0.00 75 1013.0
20260904004803 83 0 0.0 0.0 0.00 0.00 0.00 75 1013.0
20260904004704 83 0 0.0 0.0 0.00 0.00 0.00 75 1013.0
20260904004603 83 0 0.0 0.0 0.00 0.00 0.00 74 1013.0
20260904004504 83 0 0.0 0.0 0.00 0.00 0.00 75 1013.0
20260904004404 83 0 0.0 0.0 0.00 0.00 0.00 75 1013.0
20260904004303 83 0 0.0 0.0 0.00 0.00 0.00 75 1013.0
20260904004203 83 0 0.0 0.0 0.00 0.00 0.00 75 1012.9
20260904004004 83 0 0.0 0.0 0.00 0.00 0.00 75 1012.9
20260904003904 83 0 0.0 0.0 0.00 0.00 0.00 75 1012.9
20260904003803 83 0 0.0 0.0 0.00 0.00 0.00 75 1012.8
20260904003703 83 0 0.0 0.0 0.00 0.00 0.00 75 1012.8
20260904003603 83 0 0.0 0.0 0.00 0.00 0.00 75 1012.8
20260904003504 83 0 0.0 0.0 0.00 0.00 0.00 75 1012.8
20260904003403 83 0 0.0 0.0 0.00 0.00 0.00 75 1012.8
20260904003304 83 0 0.0 0.0 0.00 0.00 0.00 75 1012.8
20260904003216 83 0 0.0 0.0 0.00 0.00 0.00 75 1012.8
20260904003103 83 0 0.0 0.0 0.00 0.00 0.00 74 1012.8
20260904002903 83 0 0.0 0.0 0.00 0.00 0.00 75 1012.8
20260904002803 84 0 0.0 0.0 0.00 0.00 0.00 75 1012.8
20260904002703 84 0 0.0 0.0 0.00 0.00 0.00 75 1012.8
20260904002603 84 0 0.0 0.0 0.00 0.00 0.00 75 1012.8
20260904002503 84 0 0.0 0.0 0.00 0.00 0.00 75 1012.8
20260904002403 84 0 0.0 0.0 0.00 0.00 0.00 75 1012.8
20260904002306 84 0 0.0 0.0 0.00 0.00 0.00 74 1012.8
20260904002204 84 0 0.0 0.0 0.00 0.00 0.00 74 1012.8
20260904002104 84 0 0.0 0.0 0.00 0.00 0.00 74 1012.8
20260904002003 84 0 0.0 0.0 0.00 0.00 0.00 74 1012.7
20260904001904 85 0 0.0 0.0 0.00 0.00 0.00 74 1012.7
20260904001804 85 0 0.0 0.0 0.00 0.00 0.00 73 1012.7
20260904001704 85 0 0.0 0.0 0.00 0.00 0.00 73 1012.7
20260904001603 85 0 0.0 0.0 0.00 0.00 0.00 73 1012.6
20260904001517 85 0 0.0 0.0 0.00 0.00 0.00 73 1012.6
20260904001503 85 0 0.0 0.0 0.00 0.00 0.00 73 1012.7
20260904001203 85 0 0.0 0.0 0.00 0.00 0.00 72 1012.7
20260904001103 86 0 0.0 0.0 0.00 0.00 0.00 72 1012.6
20260904001003 86 0 0.0 0.0 0.00 0.00 0.00 72 1012.6
20260904000904 86 0 0.0 0.0 0.00 0.00 0.00 72 1012.6
20260904000804 86 0 0.0 0.0 0.00 0.00 0.00 71 1012.6
20260904000704 86 0 0.0 0.0 0.00 0.00 0.00 71 1012.6
20260904000604 86 0 0.0 0.0 0.00 0.00 0.00 71 1012.6
20260904000503 86 0 0.0 0.0 0.00 0.00 0.00 71 1012.6
20260904000403 86 0 0.0 0.0 0.00 0.00 0.00 71 1012.6
20260904000303 86 0 0.0 0.0 0.00 0.00 0.00 71 1012.6
20260904000204 86 0 0.0 0.0 0.00 0.00 0.00 71 1012.6
20260904000103 86 0 0.0 0.0 0.00 0.00 0.00 71 1012.6
20260904000003 86 0 0.0 0.0 0.00 0.00 0.00 71 1012.6
20260903235903 86 0 0.0 0.0 0.00 0.00 0.00 71 1012.6
20260903235804 86 0 0.0 0.0 0.00 0.00 0.00 71 1012.7
20260903235703 87 0 0.0 0.0 0.00 0.00 0.00 70 1012.7
20260903235604 87 0 0.0 0.0 0.00 0.00 0.00 71 1012.7
20260903235503 87 0 0.0 0.0 0.00 0.00 0.00 71 1012.6
20260903235404 87 0 0.0 0.0 0.00 0.00 0.00 70 1012.6
20260903235204 87 0 0.0 0.0 0.00 0.00 0.00 69 1012.6
20260903235103 87 0 0.0 0.0 0.00 0.00 0.00 69 1012.6
20260903234904 88 0 0.0 0.0 0.00 0.00 0.00 69 1012.6
20260903234803 88 0 0.0 0.0 0.00 0.00 0.00 68 1012.6
20260903234703 88 0 0.0 0.0 0.00 0.00 0.00 68 1012.6
20260903234604 88 0 0.0 0.0 0.00 0.00 0.00 66 1012.6
20260903234503 88 0 0.0 0.0 0.00 0.00 0.00 67 1012.6
20260903234403 88 0 0.0 0.0 0.00 0.00 0.00 68 1012.6
20260903234303 88 0 0.0 0.0 0.00 0.00 0.00 68 1012.6
20260903234203 88 0 0.0 0.0 0.00 0.00 0.00 69 1012.5
20260903234103 88 0 0.0 0.0 0.00 0.00 0.00 69 1012.5
20260903234003 88 0 0.0 0.0 0.00 0.00 0.00 69 1012.6
20260903233803 88 0 0.0 0.0 0.00 0.00 0.00 69 1012.6
20260903233704 88 0 0.0 0.0 0.00 0.00 0.00 68 1012.5
20260903233604 89 0 0.0 0.0 0.00 0.00 0.00 68 1012.5
20260903233504 89 0 0.0 0.0 0.00 0.00 0.00 67 1012.5
20260903233403 89 0 0.0 0.0 0.00 0.00 0.00 67 1012.5
20260903233318 89 0 0.0 0.0 0.00 0.00 0.00 67 1012.5
20260903233304 89 0 0.0 0.0 0.00 0.00 0.00 66 1012.5
20260903233203 89 0 0.0 0.0 0.00 0.00 0.00 65 1012.5
20260903233004 89 0 0.0 0.0 0.00 0.00 0.00 66 1012.5
20260903232904 89 0 0.0 0.0 0.00 0.00 0.00 66 1012.5
20260903232803 90 0 0.0 0.0 0.00 0.00 0.00 65 1012.5
20260903232717 90 0 0.0 0.0 0.00 0.00 0.00 64 1012.4
20260903232703 90 0 0.0 0.0 0.00 0.00 0.00 63 1012.4
20260903232603 90 0 0.0 0.0 0.00 0.00 0.00 63 1012.4
20260903232417 90 0 0.0 0.0 0.00 0.00 0.00 64 1012.4
20260903232306 90 0 0.0 0.0 0.00 0.00 0.00 63 1012.4
20260903232119 90 0 0.0 0.0 0.00 0.00 0.00 62 1012.4
20260903232103 90 0 0.0 0.0 0.00 0.00 0.00 61 1012.4
20260903232003 90 0 0.0 0.0 0.00 0.00 0.00 61 1012.4
20260903231804 91 0 0.0 0.0 0.00 0.00 0.00 61 1012.4
20260903231704 91 0 0.0 0.0 0.00 0.00 0.00 60 1012.4
20260903231403 91 0 0.0 0.0 0.00 0.00 0.00 59 1012.4
20260903231304 91 0 0.0 0.0 0.00 0.00 0.00 59 1012.3
20260903231203 91 0 0.0 0.0 0.00 0.00 0.00 58 1012.3
20260903231103 92 0 0.0 0.0 0.00 0.00 0.00 58 1012.2
20260903231003 92 0 0.0 0.0 0.00 0.00 0.00 58 1012.2
20260903230904 92 0 0.0 0.0 0.00 0.00 0.00 58 1012.2
20260903230803 92 0 0.0 0.0 0.00 0.00 0.00 58 1012.2
20260903230704 92 0 0.0 0.0 0.00 0.00 0.00 58 1012.2
20260903230603 92 0 0.0 0.0 0.00 0.00 0.00 57 1012.3
20260903230503 92 0 0.0 0.0 0.00 0.00 0.00 57 1012.3
20260903230403 92 0 0.0 0.0 0.00 0.00 0.00 57 1012.2
20260903230203 93 0 0.0 0.0 0.00 0.00 0.00 56 1012.2
20260903230103 93 0 0.0 0.0 0.00 0.00 0.00 55 1012.2
20260903230003 93 0 0.0 0.0 0.00 0.00 0.00 55 1012.2
20260903225904 93 0 0.0 0.0 0.00 0.00 0.00 55 1012.2
20260903225704 93 0 0.0 0.0 0.00 0.00 0.00 56 1012.2
20260903225604 93 0 0.0 0.0 0.00 0.00 0.00 55 1012.2
20260903225504 93 0 0.0 0.0 0.00 0.00 0.00 55 1012.2
20260903225403 93 0 0.0 0.0 0.00 0.00 0.00 55 1012.2
20260903225306 93 0 0.0 0.0 0.00 0.00 0.00 56 1012.1
20260903225203 93 0 0.0 0.0 0.00 0.00 0.00 56 1012.1
20260903225103 93 0 0.0 0.0 0.00 0.00 0.00 54 1012.1
20260903225003 93 0 0.0 0.0 0.00 0.00 0.00 57 1012.2
20260903224903 93 0 0.0 0.0 0.00 0.00 0.00 56 1012.2
20260903224803 93 0 0.0 0.0 0.00 0.00 0.00 56 1012.2
20260903224604 93 0 0.0 0.0 0.00 0.00 0.00 55 1012.3
20260903224504 93 0 0.0 0.0 0.00 0.00 0.00 54 1012.2
20260903224403 93 0 0.0 0.0 0.00 0.00 0.00 54 1012.2
20260903224303 93 0 0.0 0.0 0.00 0.00 0.00 54 1012.2
20260903224203 93 0 0.0 0.0 0.00 0.00 0.00 54 1012.2
20260903224104 93 0 0.0 0.0 0.00 0.00 0.00 55 1012.2
20260903224003 94 0 0.0 0.0 0.00 0.00 0.00 55 1012.2
20260903223903 94 0 0.0 0.0 0.00 0.00 0.00 55 1012.2
20260903223703 94 0 0.0 0.0 0.00 0.00 0.00 53 1012.2
20260903223604 94 0 0.0 0.0 0.00 0.00 0.00 54 1012.2
20260903223503 94 0 0.0 0.0 0.00 0.00 0.00 54 1012.2
20260903223404 94 0 0.0 0.0 0.00 0.00 0.00 56 1012.2
20260903223303 94 0 0.0 0.0 0.00 0.00 0.00 56 1012.2
20260903223204 94 0 0.0 0.0 0.00 0.00 0.00 55 1012.2
20260903223003 94 0 0.0 0.0 0.00 0.00 0.00 58 1012.3
20260903222904 94 0 0.0 0.0 0.00 0.00 0.00 60 1012.3
20260903222804 94 0 0.0 0.0 0.00 0.00 0.00 59 1012.2
20260903222703 94 0 0.0 0.0 0.00 0.00 0.00 57 1012.2
20260903222603 94 0 0.0 0.0 0.00 0.00 0.00 60 1012.2
20260903222404 94 0 0.0 0.0 0.00 0.00 0.00 56 1012.1
20260903222317 94 0 0.0 0.0 0.00 0.00 0.00 55 1012.1
20260903222305 94 0 0.0 0.0 0.00 0.00 0.00 56 1012.1
20260903222218 94 0 0.0 0.0 0.00 0.00 0.00 56 1012.1
20260903221903 94 0 0.0 0.0 0.00 0.00 0.00 57 1012.2
20260903221803 94 0 0.0 0.0 0.00 0.00 0.00 57 1012.2
20260903221703 94 0 0.0 0.0 0.00 0.00 0.00 58 1012.1
20260903221603 94 0 0.0 0.0 0.00 0.00 0.00 59 1012.1
20260903221504 94 24 0.0 1.0 0.00 0.00 0.00 58 1012.1
20260903221403 94 24 0.0 1.0 0.00 0.00 0.00 59 1012.2
20260903221304 94 24 0.0 1.0 0.00 0.00 0.00 59 1012.2
20260903221203 93 24 0.0 1.0 0.00 0.00 0.00 56 1012.1
20260903221103 93 24 0.0 1.0 0.00 0.00 0.00 58 1012.1
20260903221004 93 24 0.0 1.0 0.00 0.00 0.00 59 1012.1
20260903220804 92 24 0.0 1.0 0.00 0.00 0.00 60 1012.1
20260903220704 92 24 0.0 1.0 0.00 0.00 0.00 60 1012.1
20260903220603 92 24 0.0 1.0 0.00 0.00 0.00 61 1012.2
20260903220518 91 24 0.0 1.0 0.00 0.00 0.00 61 1012.2
20260903220503 91 24 0.0 1.0 0.00 0.00 0.00 63 1012.2
20260903220404 91 24 0.0 1.0 0.00 0.00 0.00 64 1012.1
20260903220319 91 24 0.0 1.0 0.00 0.00 0.00 63 1012.1
20260903220203 91 24 0.0 1.0 0.00 0.00 0.00 64 1012.2
20260903220003 91 24 0.0 1.0 0.00 0.00 0.00 62 1012.1
20260903215903 91 24 0.0 1.0 0.00 0.00 0.00 62 1012.2
20260903215804 91 24 0.0 1.0 0.00 0.00 0.00 61 1012.2
20260903215716 91 24 0.0 1.0 0.00 0.00 0.00 61 1012.1
20260903215603 91 24 0.0 1.0 0.00 0.00 0.00 61 1012.2
20260903215306 91 24 0.0 1.0 0.00 0.00 0.00 60 1012.2
20260903215203 91 0 0.0 0.0 0.00 0.00 0.00 60 1012.2
20260903215103 92 0 0.0 0.0 0.00 0.00 0.00 60 1012.2
20260903215003 92 0 0.0 0.0 0.00 0.00 0.00 60 1012.2
20260903214903 92 0 0.0 0.0 0.00 0.00 0.00 60 1012.2
20260903214704 92 0 0.0 0.0 0.00 0.00 0.00 59 1012.3
20260903214603 92 0 0.0 0.0 0.00 0.00 0.00 59 1012.3
20260903214503 92 0 0.0 0.0 0.00 0.00 0.00 59 1012.3
20260903214404 92 0 0.0 0.0 0.00 0.00 0.00 58 1012.3
20260903214303 93 0 0.0 0.0 0.00 0.00 0.00 58 1012.3
20260903214203 93 24 0.0 1.0 0.00 0.00 0.00 58 1012.3
20260903214103 93 24 0.0 1.0 0.00 0.00 0.00 58 1012.3
20260903213903 93 24 0.0 1.0 0.00 0.00 0.00 56 1012.3
20260903213804 93 24 0.0 1.0 0.00 0.00 0.00 56 1012.3
20260903213503 94 24 0.0 1.0 0.00 0.00 0.00 55 1012.3
20260903213403 94 24 0.0 1.0 0.00 0.00 0.00 55 1012.3
20260903213304 94 24 0.0 1.0 0.00 0.00 0.00 55 1012.3
20260903213203 94 24 0.0 1.0 0.00 0.00 0.00 55 1012.3
20260903213004 95 24 0.0 1.0 0.00 0.00 0.00 55 1012.4
20260903212903 95 24 0.0 1.0 0.00 0.00 0.00 54 1012.4
20260903212803 95 24 0.0 1.0 0.00 0.00 0.00 53 1012.3
20260903212703 95 24 0.0 1.0 0.00 0.00 0.00 53 1012.3
20260903212604 95 24 0.0 1.0 0.00 0.00 0.00 53 1012.4
20260903212503 96 24 0.0 1.0 0.00 0.00 0.00 53 1012.3
20260903212418 96 24 0.0 1.0 0.00 0.00 0.00 52 1012.3
20260903212403 96 24 0.0 1.0 0.00 0.00 0.00 51 1012.3
20260903212306 96 24 0.0 1.0 0.00 0.00 0.00 51 1012.3
20260903212217 96 24 0.0 1.0 0.00 0.00 0.00 51 1012.3
20260903212103 96 24 0.0 1.0 0.00 0.00 0.00 51 1012.3
20260903212016 96 24 1.0 2.0 0.00 0.00 0.00 50 1012.4
20260903211704 97 24 1.0 2.0 0.00 0.00 0.00 49 1012.5
20260903211603 97 24 1.0 2.0 0.00 0.00 0.00 49 1012.5
20260903211504 97 24 1.0 2.0 0.00 0.00 0.00 49 1012.5
20260903211403 97 24 1.0 2.0 0.00 0.00 0.00 49 1012.5
20260903211303 97 24 1.0 3.0 0.00 0.00 0.00 49 1012.5
20260903211217 97 24 1.0 3.0 0.00 0.00 0.00 49 1012.5
20260903211204 97 24 1.0 3.0 0.00 0.00 0.00 48 1012.5
20260903211103 97 24 1.0 3.0 0.00 0.00 0.00 48 1012.5
20260903211018 97 24 1.0 3.0 0.00 0.00 0.00 48 1012.6
20260903210903 97 24 1.0 3.0 0.00 0.00 0.00 48 1012.6
20260903210603 97 24 1.0 3.0 0.00 0.00 0.00 49 1012.5
20260903210503 98 24 1.0 3.0 0.00 0.00 0.00 48 1012.5
20260903210403 98 23 1.0 3.0 0.00 0.00 0.00 47 1012.6
20260903210304 98 23 1.0 3.0 0.00 0.00 0.00 47 1012.6
20260903210203 98 23 1.0 3.0 0.00 0.00 0.00 48 1012.6
20260903210104 98 23 1.0 3.0 0.00 0.00 0.00 49 1012.6
20260903205903 98 22 1.0 3.0 0.00 0.00 0.00 48 1012.7
20260903205804 98 22 1.0 3.0 0.00 0.00 0.00 47 1012.7
20260903205703 98 22 1.0 2.0 0.00 0.00 0.00 47 1012.7
20260903205604 98 22 1.0 2.0 0.00 0.00 0.00 48 1012.7
20260903205503 98 22 1.0 2.0 0.00 0.00 0.00 47 1012.7
20260903205404 98 23 1.0 2.0 0.00 0.00 0.00 47 1012.7
20260903205306 98 23 0.0 2.0 0.00 0.00 0.00 47 1012.7
20260903205204 98 23 0.0 2.0 0.00 0.00 0.00 46 1012.7
20260903205103 99 25 0.0 2.0 0.00 0.00 0.00 46 1012.7
20260903205004 99 26 0.0 2.0 0.00 0.00 0.00 46 1012.7
20260903204903 99 27 0.0 2.0 0.00 0.00 0.00 46 1012.8
20260903204817 99 28 0.0 2.0 0.00 0.00 0.00 46 1012.8
20260903204803 99 28 0.0 2.0 0.00 0.00 0.00 49 1012.8
20260903204704 98 30 0.0 2.0 0.00 0.00 0.00 49 1012.7
20260903204503 98 30 0.0 2.0 0.00 0.00 0.00 47 1012.7
20260903204404 98 30 0.0 2.0 0.00 0.00 0.00 48 1012.7
20260903204316 98 30 0.0 2.0 0.00 0.00 0.00 49 1012.7
20260903204204 99 30 0.0 2.0 0.00 0.00 0.00 49 1012.7
20260903204003 99 30 0.0 2.0 0.00 0.00 0.00 46 1012.7
20260903203903 99 30 1.0 2.0 0.00 0.00 0.00 46 1012.8
20260903203804 99 30 1.0 2.0 0.00 0.00 0.00 46 1012.8
20260903203704 99 30 1.0 2.0 0.00 0.00 0.00 47 1012.8
20260903203603 99 30 1.0 2.0 0.00 0.00 0.00 47 1012.8
20260903203503 98 30 1.0 2.0 0.00 0.00 0.00 47 1012.8
20260903203404 98 30 1.0 2.0 0.00 0.00 0.00 47 1012.8
20260903203304 98 30 1.0 2.0 0.00 0.00 0.00 46 1012.8
20260903203203 98 30 1.0 2.0 0.00 0.00 0.00 47 1012.8
20260903203118 98 30 1.0 2.0 0.00 0.00 0.00 46 1012.8
20260903203103 98 30 1.0 2.0 0.00 0.00 0.00 47 1012.8
20260903202919 98 30 1.0 2.0 0.00 0.00 0.00 47 1012.8
20260903202803 98 30 1.0 2.0 0.00 0.00 0.00 48 1012.9
20260903202718 98 30 1.0 2.0 0.00 0.00 0.00 46 1012.9
20260903202603 98 30 1.0 2.0 0.00 0.00 0.00 48 1012.8
20260903202404 98 30 1.0 2.0 0.00 0.00 0.00 47 1012.9
20260903202306 98 30 1.0 2.0 0.00 0.00 0.00 47 1012.9
20260903202203 97 30 1.0 2.0 0.00 0.00 0.00 48 1012.9
20260903202103 97 30 0.0 2.0 0.00 0.00 0.00 49 1012.9
20260903202004 97 30 0.0 2.0 0.00 0.00 0.00 48 1012.9
20260903201903 97 30 0.0 2.0 0.00 0.00 0.00 53 1012.9
20260903201803 96 30 0.0 1.0 0.00 0.00 0.00 49 1012.9
20260903201703 96 30 0.0 1.0 0.00 0.00 0.00 53 1012.9
20260903201603 96 30 0.0 1.0 0.00 0.00 0.00 52 1013.0
20260903201503 96 30 0.0 1.0 0.00 0.00 0.00 52 1013.0
20260903201404 96 30 0.0 1.0 0.00 0.00 0.00 52 1013.0
20260903201304 96 30 0.0 1.0 0.00 0.00 0.00 53 1013.0
20260903201203 96 30 0.0 1.0 0.00 0.00 0.00 53 1013.0
20260903201104 96 30 0.0 1.0 0.00 0.00 0.00 53 1013.0
20260903200903 96 30 0.0 2.0 0.00 0.00 0.00 52 1013.0
20260903200803 96 30 0.0 2.0 0.00 0.00 0.00 52 1013.1
20260903200703 96 30 1.0 2.0 0.00 0.00 0.00 52 1013.1
20260903200603 96 30 1.0 2.0 0.00 0.00 0.00 51 1013.0
20260903200504 96 30 1.0 2.0 0.00 0.00 0.00 52 1013.2
20260903200304 96 30 1.0 2.0 0.00 0.00 0.00 51 1013.2
20260903200203 96 30 1.0 2.0 0.00 0.00 0.00 49 1013.2
20260903200104 96 30 1.0 2.0 0.00 0.00 0.00 49 1013.1
20260903200003 96 30 0.0 2.0 0.00 0.00 0.00 50 1013.2
20260903195903 96 30 0.0 2.0 0.00 0.00 0.00 49 1013.2
20260903195804 96 30 0.0 2.0 0.00 0.00 0.00 49 1013.3
20260903195703 96 30 0.0 2.0 0.00 0.00 0.00 49 1013.2
20260903195504 96 30 0.0 2.0 0.00 0.00 0.00 50 1013.2
20260903195404 96 30 1.0 2.0 0.00 0.00 0.00 51 1013.2
20260903195306 96 30 1.0 2.0 0.00 0.00 0.00 50 1013.3
20260903195217 96 30 1.0 2.0 0.00 0.00 0.00 49 1013.3
20260903195204 96 30 1.0 2.0 0.00 0.00 0.00 49 1013.2
20260903194904 97 30 1.0 3.0 0.00 0.00 0.00 49 1013.3
20260903194803 97 30 1.0 3.0 0.00 0.00 0.00 48 1013.3
20260903194703 97 30 1.0 3.0 0.00 0.00 0.00 48 1013.3
20260903194604 98 31 1.0 3.0 0.00 0.00 0.00 49 1013.3
20260903194503 98 33 1.0 3.0 0.00 0.00 0.00 49 1013.3
20260903194404 98 44 1.0 3.0 0.00 0.00 0.00 48 1013.3
20260903194303 98 52 1.0 3.0 0.00 0.00 0.00 48 1013.3
20260903194203 98 63 1.0 3.0 0.00 0.00 0.00 48 1013.2
20260903194103 98 71 1.0 3.0 0.00 0.00 0.00 47 1013.2
20260903194018 99 78 1.0 3.0 0.00 0.00 0.00 47 1013.3
20260903194003 99 81 1.0 3.0 0.00 0.00 0.00 47 1013.3
20260903193903 99 92 1.0 3.0 0.00 0.00 0.00 47 1013.3
20260903193817 99 101 1.0 3.0 0.00 0.00 0.00 47 1013.3
20260903193703 99 116 1.0 3.0 0.00 0.00 0.00 47 1013.3
20260903193618 99 121 1.0 3.0 0.00 0.00 0.00 47 1013.3
20260903193503 99 126 1.0 3.0 0.00 0.00 0.00 46 1013.3
20260903193303 99 102 1.0 3.0 0.00 0.00 0.00 47 1013.3
20260903193203 99 86 1.0 3.0 0.00 0.00 0.00 49 1013.3
20260903193103 99 77 1.0 3.0 0.00 0.00 0.00 48 1013.3
20260903193003 99 69 1.0 3.0 0.00 0.00 0.00 48 1013.3
20260903192903 99 75 1.0 3.0 0.00 0.00 0.00 47 1013.4
20260903192703 99 55 1.0 3.0 0.00 0.00 0.00 47 1013.4
20260903192603 99 59 1.0 3.0 0.00 0.00 0.00 46 1013.4
20260903192503 100 62 1.0 3.0 0.00 0.00 0.00 48 1013.4
20260903192403 100 73 1.0 3.0 0.00 0.00 0.00 48 1013.5
20260903192306 100 95 1.0 3.0 0.00 0.00 0.00 47 1013.5
20260903192203 100 110 1.0 3.0 0.00 0.00 0.00 46 1013.5
20260903192104 100 114 1.0 3.0 0.00 0.00 0.00 48 1013.5
20260903192003 100 123 1.0 2.0 0.00 0.00 0.00 49 1013.5
20260903191904 99 120 1.0 3.0 0.00 0.00 0.00 47 1013.5
20260903191803 99 100 1.0 3.0 0.00 0.00 0.00 53 1013.5
20260903191703 99 92 1.0 3.0 0.00 0.00 0.00 50 1013.6
20260903191604 99 83 1.0 3.0 0.00 0.00 0.00 47 1013.6
20260903191503 99 73 1.0 3.0 0.00 0.00 0.00 48 1013.6
20260903191403 99 66 1.0 3.0 0.00 0.00 0.00 49 1013.7
20260903191303 98 54 2.0 4.0 0.00 0.00 0.00 47 1013.7
20260903191216 98 45 2.0 4.0 0.00 0.00 0.00 47 1013.7
20260903191204 98 43 2.0 4.0 0.00 0.00 0.00 47 1013.7
20260903191103 98 37 2.0 4.0 0.00 0.00 0.00 48 1013.7
20260903190918 98 22 2.0 4.0 0.00 0.00 0.00 49 1013.6
20260903190904 98 21 2.0 4.0 0.00 0.00 0.00 48 1013.6
20260903190803 98 18 1.0 4.0 0.00 0.00 0.00 48 1013.7
20260903190603 98 14 1.0 4.0 0.00 0.00 0.00 47 1013.7
20260903190504 99 5 1.0 4.0 0.00 0.00 0.00 47 1013.7
20260903190403 99 343 1.0 4.0 0.00 0.00 0.00 46 1013.7
20260903190303 99 241 1.0 3.0 0.00 0.00 0.00 49 1013.8
20260903190203 99 200 1.0 3.0 0.00 0.00 0.00 50 1013.8
20260903190003 98 190 1.0 3.0 0.00 0.00 0.00 48 1013.8
20260903185904 98 185 1.0 3.0 0.00 0.00 0.00 49 1013.8
20260903185803 97 184 1.0 3.0 0.00 0.00 0.00 51 1013.9
20260903185704 97 185 1.0 3.0 0.00 0.00 0.00 50 1013.9
20260903185604 97 185 1.0 3.0 0.00 0.00 0.00 50 1013.9
20260903185504 97 187 1.0 3.0 0.00 0.00 0.00 49 1013.9
20260903185404 97 193 1.0 3.0 0.00 0.00 0.00 49 1013.8
20260903185306 98 202 1.0 3.0 0.00 0.00 0.00 48 1013.9
20260903185203 98 263 1.0 3.0 0.00 0.00 0.00 48 1013.9
20260903185103 99 286 1.0 3.0 0.00 0.00 0.00 48 1013.9
20260903185004 99 264 1.0 3.0 0.00 0.00 0.00 48 1013.9
20260903184918 99 305 1.0 3.0 0.00 0.00 0.00 47 1013.9
20260903184903 99 313 1.0 3.0 0.00 0.00 0.00 47 1013.9
20260903184804 99 311 1.0 6.0 0.00 0.00 0.00 48 1013.9
20260903184604 99 338 1.0 6.0 0.00 0.00 0.00 50 1014.0
20260903184503 99 329 1.0 6.0 0.00 0.00 0.00 49 1014.0
20260903184403 99 324 1.0 6.0 0.00 0.00 0.00 47 1014.0
20260903184304 99 332 2.0 6.0 0.00 0.00 0.00 47 1014.1
20260903184204 99 335 2.0 6.0 0.00 0.00 0.00 47 1014.1
20260903184104 99 337 2.0 6.0 0.00 0.00 0.00 47 1014.1
20260903184017 99 339 2.0 6.0 0.00 0.00 0.00 49 1014.1
20260903184004 99 339 2.0 6.0 0.00 0.00 0.00 48 1014.1
20260903183903 99 340 2.0 6.0 0.00 0.00 0.00 48 1014.1
20260903183719 98 346 2.0 4.0 0.00 0.00 0.00 48 1014.1
20260903183703 99 347 2.0 4.0 0.00 0.00 0.00 48 1014.2
20260903183603 99 340 1.0 3.0 0.00 0.00 0.00 48 1014.2
20260903183403 99 7 1.0 3.0 0.00 0.00 0.00 45 1014.3
20260903183304 99 11 1.0 3.0 0.00 0.00 0.00 50 1014.3
20260903183204 99 27 1.0 3.0 0.00 0.00 0.00 48 1014.3
20260903183119 99 43 1.0 3.0 0.00 0.00 0.00 46 1014.3
20260903183103 99 48 1.0 3.0 0.00 0.00 0.00 46 1014.3
20260903183004 100 81 1.0 3.0 0.00 0.00 0.00 45 1014.2
20260903182803 100 102 1.0 3.0 0.00 0.00 0.00 46 1014.2
20260903182703 100 107 1.0 3.0 0.00 0.00 0.00 49 1014.3
20260903182604 99 107 1.0 3.0 0.00 0.00 0.00 48 1014.3
20260903182503 99 105 1.0 3.0 0.00 0.00 0.00 46 1014.3
20260903182417 99 99 1.0 3.0 0.00 0.00 0.00 48 1014.3
20260903182403 99 98 1.0 3.0 0.00 0.00 0.00 48 1014.3
20260903182306 99 91 1.0 3.0 0.00 0.00 0.00 48 1014.3
20260903182117 99 85 1.0 3.0 0.00 0.00 0.00 46 1014.3
20260903182103 99 84 1.0 3.0 0.00 0.00 0.00 46 1014.3
20260903182004 99 71 1.0 3.0 0.00 0.00 0.00 47 1014.3
20260903181817 99 47 1.0 3.0 0.00 0.00 0.00 47 1014.3
20260903181803 99 43 1.0 3.0 0.00 0.00 0.00 47 1014.3
20260903181703 99 44 1.0 3.0 0.00 0.00 0.00 47 1014.4
20260903181504 99 41 1.0 3.0 0.00 0.00 0.00 47 1014.4
20260903181403 99 35 1.0 3.0 0.00 0.00 0.00 47 1014.4
20260903181304 99 29 1.0 3.0 0.00 0.00 0.00 49 1014.4
20260903181204 98 25 1.0 3.0 0.00 0.00 0.00 48 1014.5
20260903181103 98 24 2.0 3.0 0.00 0.00 0.00 48 1014.5
20260903181003 98 24 2.0 3.0 0.00 0.00 0.00 48 1014.5
20260903180903 98 28 1.0 3.0 0.00 0.00 0.00 47 1014.5
20260903180803 98 27 1.0 3.0 0.00 0.00 0.00 49 1014.5
20260903180704 97 18 1.0 3.0 0.00 0.00 0.00 48 1014.5
20260903180603 97 357 1.0 4.0 0.00 0.00 0.00 49 1014.5
20260903180503 97 341 1.0 4.0 0.00 0.00 0.00 48 1014.5
20260903180417 97 339 1.0 4.0 0.00 0.00 0.00 48 1014.6
20260903180404 97 339 1.0 4.0 0.00 0.00 0.00 47 1014.6
20260903180303 98 335 1.0 4.0 0.00 0.00 0.00 47 1014.6
20260903180004 99 316 1.0 4.0 0.00 0.00 0.00 46 1014.6
20260903175903 100 315 1.0 4.0 0.00 0.00 0.00 47 1014.6
20260903175816 100 313 1.0 4.0 0.00 0.00 0.00 47 1014.6
20260903175804 100 312 1.0 4.0 0.00 0.00 0.00 46 1014.6
20260903175703 100 310 1.0 4.0 0.00 0.00 0.00 45 1014.6
20260903175503 100 316 1.0 3.0 0.00 0.00 0.00 47 1014.7
20260903175403 100 322 1.0 3.0 0.00 0.00 0.00 48 1014.7
20260903175319 100 325 1.0 3.0 0.00 0.00 0.00 46 1014.7
20260903175203 100 344 1.0 3.0 0.00 0.00 0.00 46 1014.7
20260903175003 100 109 1.0 4.0 0.00 0.00 0.00 48 1014.7
20260903174903 100 113 1.0 4.0 0.00 0.00 0.00 48 1014.7
20260903174803 100 118 1.0 4.0 0.00 0.00 0.00 49 1014.7
20260903174704 99 117 1.0 4.0 0.00 0.00 0.00 50 1014.7
20260903174603 99 117 2.0 4.0 0.00 0.00 0.00 51 1014.8
20260903174518 99 120 2.0 4.0 0.00 0.00 0.00 52 1014.8
20260903174504 99 119 2.0 4.0 0.00 0.00 0.00 52 1014.8
20260903174403 99 120 2.0 4.0 0.00 0.00 0.00 52 1014.8
20260903174204 100 122 2.0 4.0 0.00 0.00 0.00 50 1014.8
20260903174104 100 112 1.0 4.0 0.00 0.00 0.00 49 1014.9
20260903174017 100 106 1.0 4.0 0.00 0.00 0.00 49 1014.9
20260903174004 100 105 1.0 4.0 0.00 0.00 0.00 49 1014.9
20260903173918 99 99 1.0 4.0 0.00 0.00 0.00 49 1014.9
20260903173903 100 95 1.0 4.0 0.00 0.00 0.00 49 1014.9
20260903173604 99 38 1.0 3.0 0.00 0.00 0.00 51 1014.9
20260903173503 99 28 1.0 3.0 0.00 0.00 0.00 54 1014.9
20260903173403 99 35 1.0 3.0 0.00 0.00 0.00 51 1014.9
20260903173304 99 60 1.0 3.0 0.00 0.00 0.00 51 1014.9
20260903173203 99 91 1.0 3.0 0.00 0.00 0.00 49 1014.9
20260903173103 99 124 1.0 3.0 0.00 0.00 0.00 50 1014.9
20260903173003 99 133 1.0 3.0 0.00 0.00 0.00 49 1014.9
20260903172904 99 150 1.0 3.0 0.00 0.00 0.00 48 1014.9
20260903172816 98 166 1.0 3.0 0.00 0.00 0.00 49 1015.0
20260903172804 98 168 1.0 3.0 0.00 0.00 0.00 49 1015.0
20260903172703 98 177 1.0 3.0 0.00 0.00 0.00 49 1015.0
20260903172617 98 182 1.0 3.0 0.00 0.00 0.00 48 1015.0
20260903172504 98 194 1.0 3.0 0.00 0.00 0.00 48 1015.1
20260903172306 98 262 1.0 3.0 0.00 0.00 0.00 51 1015.1
20260903172203 98 302 1.0 2.0 0.00 0.00 0.00 50 1015.1
20260903172116 98 314 1.0 2.0 0.00 0.00 0.00 50 1015.1
20260903172103 98 315 1.0 2.0 0.00 0.00 0.00 50 1015.1
20260903172017 98 317 1.0 2.0 0.00 0.00 0.00 51 1015.1
20260903172003 98 318 1.0 2.0 0.00 0.00 0.00 51 1015.1
20260903171719 98 326 1.0 4.0 0.00 0.00 0.00 50 1015.2
20260903171703 98 326 1.0 4.0 0.00 0.00 0.00 51 1015.2
20260903171603 97 326 1.0 4.0 0.00 0.00 0.00 50 1015.2
20260903171303 97 325 1.0 4.0 0.00 0.00 0.00 53 1015.2
20260903171204 97 324 0.0 4.0 0.00 0.00 0.00 55 1015.2
20260903171103 97 324 0.0 4.0 0.00 0.00 0.00 52 1015.2
20260903171004 97 323 0.0 4.0 0.00 0.00 0.00 52 1015.3
20260903170903 97 0 0.0 0.0 0.00 0.00 0.00 56 1015.3
20260903170803 97 0 0.0 0.0 0.00 0.00 0.00 56 1015.3
20260903170703 97 359 0.0 1.0 0.00 0.00 0.00 57 1015.3
20260903170603 97 359 0.0 1.0 0.00 0.00 0.00 57 1015.3
20260903170503 97 359 0.0 1.0 0.00 0.00 0.00 55 1015.3
20260903170403 97 359 0.0 2.0 0.00 0.00 0.00 54 1015.3
20260903170303 97 359 0.0 2.0 0.00 0.00 0.00 54 1015.3
20260903170104 97 359 0.0 2.0 0.00 0.00 0.00 54 1015.4
20260903170004 97 359 0.0 2.0 0.00 0.00 0.00 53 1015.3
20260903165903 97 359 0.0 2.0 0.00 0.00 0.00 53 1015.3
20260903165803 97 359 0.0 2.0 0.00 0.00 0.00 52 1015.4
20260903165604 98 359 0.0 2.0 0.00 0.00 0.00 52 1015.4
20260903165503 98 359 1.0 3.0 0.00 0.00 0.00 52 1015.4
20260903165404 98 359 1.0 3.0 0.00 0.00 0.00 51 1015.4
20260903165305 98 359 1.0 3.0 0.00 0.00 0.00 52 1015.4
20260903165203 98 359 1.0 4.0 0.00 0.00 0.00 52 1015.4
20260903165103 98 355 1.0 4.0 0.00 0.00 0.00 52 1015.4
20260903165003 98 353 1.0 4.0 0.00 0.00 0.00 51 1015.4
20260903164917 98 353 1.0 4.0 0.00 0.00 0.00 50 1015.4
20260903164903 98 353 1.0 4.0 0.00 0.00 0.00 50 1015.5
20260903164603 98 342 1.0 4.0 0.00 0.00 0.00 51 1015.4
20260903164504 98 335 1.0 4.0 0.00 0.00 0.00 50 1015.5
20260903164403 98 329 1.0 5.0 0.00 0.00 0.00 49 1015.5
20260903164304 98 329 1.0 5.0 0.00 0.00 0.00 48 1015.5
20260903164203 98 324 1.0 5.0 0.00 0.00 0.00 51 1015.5
20260903164118 98 329 1.0 5.0 0.00 0.00 0.00 53 1015.5
20260903164103 98 331 1.0 5.0 0.00 0.00 0.00 53 1015.5